Wetterdaten: Samstag, 14.01.2023
Datum Zeit Temp. Aussen Temp. o. S. Temp +5cm Feuchte Auss Luftdruck Regen Sonnenschein Regendauer Solar Windben Empfang
14.01.2023 00:00 7,6 C 6,7 C 3,3 C 87 % 1015,8 hPa 0,0 l/m 0 min 0 min 0 W/m 19,3 km/h (3 Bft) 100,00 %
14.01.2023 00:02 7,6 C 6,7 C 3,3 C 87 % 1015,8 hPa 0,0 l/m 0 min 0 min 0 W/m 12,9 km/h (3 Bft) 97,22 %
14.01.2023 00:04 7,6 C 6,7 C 3,3 C 87 % 1015,8 hPa 0,0 l/m 0 min 0 min 0 W/m 35,4 km/h (5 Bft) 91,49 %
14.01.2023 00:07 7,6 C 6,7 C 3,3 C 87 % 1015,8 hPa 0,0 l/m 0 min 0 min 0 W/m 19,3 km/h (3 Bft) 97,14 %
14.01.2023 00:08 7,6 C 6,7 C 3,3 C 87 % 1015,8 hPa 0,0 l/m 0 min 0 min 0 W/m 16,1 km/h (3 Bft) 91,30 %
14.01.2023 00:12 7,6 C 6,7 C 3,3 C 87 % 1015,8 hPa 0,0 l/m 0 min 0 min 0 W/m 16,1 km/h (3 Bft) 94,74 %
14.01.2023 00:18 7,5 C 6,7 C 3,3 C 87 % 1015,9 hPa 0,0 l/m 0 min 0 min 0 W/m 22,5 km/h (4 Bft) 94,59 %
14.01.2023 00:20 7,5 C 6,7 C 3,3 C 87 % 1015,9 hPa 0,0 l/m 0 min 0 min 0 W/m 16,1 km/h (3 Bft) 94,44 %
14.01.2023 00:22 7,4 C 6,7 C 3,3 C 87 % 1016,0 hPa 0,0 l/m 0 min 0 min 0 W/m 25,7 km/h (4 Bft) 76,09 %
14.01.2023 00:24 7,4 C 6,7 C 3,3 C 87 % 1015,9 hPa 0,0 l/m 0 min 0 min 0 W/m 16,1 km/h (3 Bft) 89,36 %
14.01.2023 00:26 7,4 C 6,7 C 3,3 C 87 % 1016,1 hPa 0,0 l/m 0 min 0 min 0 W/m 16,1 km/h (3 Bft) 91,49 %
14.01.2023 00:28 7,4 C 6,7 C 3,3 C 87 % 1016,2 hPa 0,0 l/m 0 min 0 min 0 W/m 16,1 km/h (3 Bft) 93,62 %
14.01.2023 00:30 7,4 C 6,7 C 3,3 C 87 % 1016,3 hPa 0,0 l/m 0 min 0 min 0 W/m 12,9 km/h (3 Bft) 85,11 %
14.01.2023 00:32 7,3 C 6,7 C 3,3 C 87 % 1016,3 hPa 0,0 l/m 0 min 0 min 0 W/m 16,1 km/h (3 Bft) 89,36 %
14.01.2023 00:34 7,3 C 6,7 C 3,3 C 87 % 1016,4 hPa 0,0 l/m 0 min 0 min 0 W/m 12,9 km/h (3 Bft) 93,62 %
14.01.2023 00:36 7,3 C 6,7 C 3,3 C 88 % 1016,3 hPa 0,0 l/m 0 min 0 min 0 W/m 16,1 km/h (3 Bft) 91,30 %
14.01.2023 00:38 7,3 C 6,7 C 3,3 C 88 % 1016,4 hPa 0,0 l/m 0 min 0 min 0 W/m 12,9 km/h (3 Bft) 95,65 %
14.01.2023 00:40 7,3 C 6,7 C 3,3 C 88 % 1016,4 hPa 0,0 l/m 0 min 0 min 0 W/m 25,7 km/h (4 Bft) 93,62 %
14.01.2023 00:42 7,3 C 6,7 C 3,3 C 88 % 1016,4 hPa 0,0 l/m 0 min 0 min 0 W/m 16,1 km/h (3 Bft) 93,62 %
14.01.2023 00:44 7,3 C 6,7 C 3,3 C 88 % 1016,4 hPa 0,0 l/m 0 min 0 min 0 W/m 22,5 km/h (4 Bft) 76,60 %
14.01.2023 00:46 7,3 C 6,7 C 3,3 C 88 % 1016,3 hPa 0,0 l/m 0 min 0 min 0 W/m 16,1 km/h (3 Bft) 61,70 %
14.01.2023 00:48 7,4 C 6,7 C 3,3 C 88 % 1016,3 hPa 0,0 l/m 0 min 0 min 0 W/m 12,9 km/h (3 Bft) 85,11 %
14.01.2023 00:50 7,4 C 6,7 C 3,3 C 88 % 1016,2 hPa 0,0 l/m 0 min 0 min 0 W/m 16,1 km/h (3 Bft) 87,23 %
14.01.2023 00:52 7,4 C 6,7 C 3,3 C 88 % 1016,2 hPa 0,0 l/m 0 min 0 min 0 W/m 19,3 km/h (3 Bft) 85,11 %
14.01.2023 00:54 7,4 C 6,7 C 3,3 C 88 % 1016,2 hPa 0,0 l/m 0 min 0 min 0 W/m 22,5 km/h (4 Bft) 87,23 %
14.01.2023 00:56 7,4 C 6,7 C 3,3 C 88 % 1016,1 hPa 0,0 l/m 0 min 0 min 0 W/m 16,1 km/h (3 Bft) 95,74 %
14.01.2023 00:58 7,4 C 6,7 C 3,3 C 88 % 1016,1 hPa 0,0 l/m 0 min 0 min 0 W/m 22,5 km/h (4 Bft) 97,87 %
14.01.2023 01:00 7,4 C 6,7 C 3,3 C 88 % 1016,1 hPa 0,0 l/m 0 min 0 min 0 W/m 22,5 km/h (4 Bft) 95,65 %
14.01.2023 01:02 7,4 C 6,7 C 3,3 C 88 % 1016,0 hPa 0,0 l/m 0 min 0 min 0 W/m 12,9 km/h (3 Bft) 97,87 %
14.01.2023 01:04 7,4 C 6,7 C 3,3 C 88 % 1015,9 hPa 0,0 l/m 0 min 0 min 0 W/m 22,5 km/h (4 Bft) 97,87 %
14.01.2023 01:06 7,4 C 6,7 C 3,3 C 88 % 1015,8 hPa 0,0 l/m 0 min 0 min 0 W/m 16,1 km/h (3 Bft) 93,62 %
14.01.2023 01:08 7,4 C 6,7 C 3,3 C 88 % 1015,8 hPa 0,0 l/m 0 min 0 min 0 W/m 19,3 km/h (3 Bft) 95,74 %
14.01.2023 01:10 7,4 C 6,7 C 3,3 C 88 % 1015,8 hPa 0,0 l/m 0 min 0 min 0 W/m 12,9 km/h (3 Bft) 85,11 %
14.01.2023 01:12 7,3 C 6,7 C 3,3 C 88 % 1015,8 hPa 0,0 l/m 0 min 0 min 0 W/m 12,9 km/h (3 Bft) 95,74 %
14.01.2023 01:14 7,3 C 6,7 C 3,3 C 88 % 1015,8 hPa 0,0 l/m 0 min 0 min 0 W/m 16,1 km/h (3 Bft) 91,30 %
14.01.2023 01:16 7,3 C 6,7 C 3,3 C 88 % 1015,9 hPa 0,0 l/m 0 min 0 min 0 W/m 19,3 km/h (3 Bft) 63,83 %
14.01.2023 01:18 7,3 C 6,7 C 3,3 C 88 % 1016,0 hPa 0,0 l/m 0 min 0 min 0 W/m 12,9 km/h (3 Bft) 65,96 %
14.01.2023 01:20 7,3 C 6,7 C 3,3 C 88 % 1016,1 hPa 0,0 l/m 0 min 0 min 0 W/m 12,9 km/h (3 Bft) 59,57 %
14.01.2023 01:22 7,3 C 6,1 C 3,3 C 88 % 1015,9 hPa 0,0 l/m 0 min 0 min 0 W/m 16,1 km/h (3 Bft) 76,60 %
14.01.2023 01:24 7,3 C 6,1 C 3,3 C 88 % 1016,0 hPa 0,0 l/m 0 min 0 min 0 W/m 16,1 km/h (3 Bft) 68,09 %
14.01.2023 01:26 7,2 C 6,1 C 3,3 C 88 % 1016,0 hPa 0,0 l/m 0 min 0 min 0 W/m 19,3 km/h (3 Bft) 63,83 %
14.01.2023 01:28 7,2 C 6,1 C 3,3 C 88 % 1015,9 hPa 0,0 l/m 0 min 0 min 0 W/m 9,7 km/h (2 Bft) 78,26 %
14.01.2023 01:30 7,2 C 6,1 C 3,3 C 88 % 1016,0 hPa 0,0 l/m 0 min 0 min 0 W/m 6,4 km/h (2 Bft) 65,96 %
14.01.2023 01:32 7,2 C 6,1 C 2,8 C 88 % 1016,1 hPa 0,0 l/m 0 min 0 min 0 W/m 16,1 km/h (3 Bft) 40,43 %
14.01.2023 01:34 7,1 C 6,1 C 2,8 C 88 % 1016,0 hPa 0,0 l/m 0 min 0 min 0 W/m 16,1 km/h (3 Bft) 89,36 %
14.01.2023 01:36 7,1 C 6,1 C 2,8 C 88 % 1016,0 hPa 0,0 l/m 0 min 0 min 0 W/m 16,1 km/h (3 Bft) 80,85 %
14.01.2023 01:38 7,1 C 6,1 C 2,8 C 88 % 1016,1 hPa 0,0 l/m 0 min 0 min 0 W/m 16,1 km/h (3 Bft) 100,00 %
14.01.2023 01:40 7,1 C 6,1 C 2,8 C 89 % 1016,1 hPa 0,0 l/m 0 min 0 min 0 W/m 19,3 km/h (3 Bft) 100,00 %
14.01.2023 01:42 7,0 C 6,1 C 2,8 C 89 % 1016,1 hPa 0,0 l/m 0 min 0 min 0 W/m 12,9 km/h (3 Bft) 97,87 %
14.01.2023 01:44 7,0 C 6,1 C 2,8 C 89 % 1016,1 hPa 0,0 l/m 0 min 0 min 0 W/m 16,1 km/h (3 Bft) 82,98 %
14.01.2023 01:46 7,0 C 6,1 C 2,8 C 89 % 1016,1 hPa 0,0 l/m 0 min 0 min 0 W/m 12,9 km/h (3 Bft) 91,49 %
14.01.2023 01:48 7,0 C 6,1 C 2,8 C 89 % 1016,2 hPa 0,0 l/m 0 min 0 min 0 W/m 16,1 km/h (3 Bft) 91,49 %
14.01.2023 01:50 7,0 C 6,1 C 2,8 C 89 % 1016,1 hPa 0,0 l/m 0 min 0 min 0 W/m 16,1 km/h (3 Bft) 93,62 %
14.01.2023 01:52 6,9 C 6,1 C 2,8 C 89 % 1016,2 hPa 0,0 l/m 0 min 0 min 0 W/m 22,5 km/h (4 Bft) 91,49 %
14.01.2023 01:54 6,9 C 6,1 C 2,8 C 89 % 1016,2 hPa 0,0 l/m 0 min 0 min 0 W/m 12,9 km/h (3 Bft) 95,65 %
14.01.2023 01:56 6,9 C 6,1 C 2,8 C 89 % 1016,3 hPa 0,0 l/m 0 min 0 min 0 W/m 19,3 km/h (3 Bft) 100,00 %
14.01.2023 01:58 6,9 C 6,1 C 2,8 C 89 % 1016,2 hPa 0,0 l/m 0 min 0 min 0 W/m 12,9 km/h (3 Bft) 95,74 %
14.01.2023 02:00 6,9 C 6,1 C 2,8 C 89 % 1016,2 hPa 0,0 l/m 0 min 0 min 0 W/m 9,7 km/h (2 Bft) 100,00 %
14.01.2023 02:02 6,9 C 6,1 C 2,8 C 89 % 1016,2 hPa 0,0 l/m 0 min 0 min 0 W/m 25,7 km/h (4 Bft) 89,36 %
14.01.2023 02:04 6,9 C 6,1 C 2,8 C 89 % 1016,3 hPa 0,0 l/m 0 min 0 min 0 W/m 19,3 km/h (3 Bft) 97,87 %
14.01.2023 02:06 6,9 C 6,1 C 2,8 C 89 % 1016,3 hPa 0,0 l/m 0 min 0 min 0 W/m 22,5 km/h (4 Bft) 82,98 %
14.01.2023 02:08 6,9 C 6,1 C 2,8 C 89 % 1016,2 hPa 0,0 l/m 0 min 0 min 0 W/m 12,9 km/h (3 Bft) 93,48 %
14.01.2023 02:10 6,8 C 6,1 C 2,8 C 89 % 1016,3 hPa 0,0 l/m 0 min 0 min 0 W/m 12,9 km/h (3 Bft) 93,62 %
14.01.2023 02:17 6,8 C 6,1 C 2,8 C 89 % 1016,3 hPa 0,0 l/m 0 min 0 min 0 W/m 22,5 km/h (4 Bft) 100,00 %
14.01.2023 02:18 6,8 C 6,1 C 2,8 C 89 % 1016,3 hPa 0,0 l/m 0 min 0 min 0 W/m 19,3 km/h (3 Bft) 100,00 %
14.01.2023 02:20 6,8 C 6,1 C 2,8 C 89 % 1016,3 hPa 0,0 l/m 0 min 0 min 0 W/m 19,3 km/h (3 Bft) 93,62 %
14.01.2023 02:22 6,8 C 6,1 C 2,8 C 89 % 1016,3 hPa 0,0 l/m 0 min 0 min 0 W/m 19,3 km/h (3 Bft) 95,74 %
14.01.2023 02:24 6,8 C 6,1 C 2,8 C 90 % 1016,2 hPa 0,0 l/m 0 min 0 min 0 W/m 16,1 km/h (3 Bft) 95,74 %
14.01.2023 02:26 6,8 C 6,1 C 2,8 C 90 % 1016,2 hPa 0,0 l/m 0 min 0 min 0 W/m 16,1 km/h (3 Bft) 93,48 %
14.01.2023 02:28 6,8 C 6,1 C 2,8 C 90 % 1016,3 hPa 0,0 l/m 0 min 0 min 0 W/m 16,1 km/h (3 Bft) 95,74 %
14.01.2023 02:30 6,8 C 6,1 C 2,8 C 90 % 1016,3 hPa 0,0 l/m 0 min 0 min 0 W/m 22,5 km/h (4 Bft) 95,74 %
14.01.2023 02:32 6,8 C 6,1 C 2,8 C 90 % 1016,3 hPa 0,0 l/m 0 min 0 min 0 W/m 16,1 km/h (3 Bft) 93,62 %
14.01.2023 02:34 6,8 C 6,1 C 2,8 C 90 % 1016,4 hPa 0,0 l/m 0 min 0 min 0 W/m 12,9 km/h (3 Bft) 93,62 %
14.01.2023 02:36 6,8 C 6,1 C 2,8 C 90 % 1016,5 hPa 0,0 l/m 0 min 0 min 0 W/m 9,7 km/h (2 Bft) 95,74 %
14.01.2023 02:38 6,8 C 6,1 C 2,8 C 90 % 1016,5 hPa 0,0 l/m 0 min 0 min 0 W/m 22,5 km/h (4 Bft) 91,49 %
14.01.2023 02:40 6,8 C 6,1 C 2,8 C 90 % 1016,5 hPa 0,0 l/m 0 min 0 min 0 W/m 22,5 km/h (4 Bft) 95,65 %
14.01.2023 02:42 6,8 C 6,1 C 2,8 C 90 % 1016,6 hPa 0,0 l/m 0 min 0 min 0 W/m 12,9 km/h (3 Bft) 95,74 %
14.01.2023 02:44 6,8 C 6,1 C 2,8 C 90 % 1016,6 hPa 0,0 l/m 0 min 0 min 0 W/m 22,5 km/h (4 Bft) 97,87 %
14.01.2023 02:46 6,7 C 6,1 C 2,8 C 90 % 1016,4 hPa 0,0 l/m 0 min 0 min 0 W/m 16,1 km/h (3 Bft) 95,74 %
14.01.2023 02:48 6,8 C 5,6 C 2,8 C 90 % 1016,4 hPa 0,0 l/m 0 min 0 min 0 W/m 9,7 km/h (2 Bft) 95,74 %
14.01.2023 02:50 6,7 C 5,6 C 2,8 C 90 % 1016,5 hPa 0,0 l/m 0 min 0 min 0 W/m 9,7 km/h (2 Bft) 95,74 %
14.01.2023 02:52 6,7 C 5,6 C 2,8 C 90 % 1016,5 hPa 0,0 l/m 0 min 0 min 0 W/m 16,1 km/h (3 Bft) 93,48 %
14.01.2023 02:54 6,7 C 5,6 C 2,8 C 90 % 1016,4 hPa 0,0 l/m 0 min 0 min 0 W/m 6,4 km/h (2 Bft) 95,74 %
14.01.2023 02:56 6,7 C 5,6 C 2,8 C 90 % 1016,4 hPa 0,0 l/m 0 min 0 min 0 W/m 12,9 km/h (3 Bft) 95,74 %
14.01.2023 02:58 6,7 C 5,6 C 2,8 C 90 % 1016,5 hPa 0,0 l/m 0 min 0 min 0 W/m 19,3 km/h (3 Bft) 97,87 %
14.01.2023 03:00 6,7 C 5,6 C 2,8 C 90 % 1016,4 hPa 0,0 l/m 0 min 0 min 0 W/m 16,1 km/h (3 Bft) 100,00 %
14.01.2023 03:02 6,7 C 5,6 C 2,8 C 90 % 1016,4 hPa 0,0 l/m 0 min 0 min 0 W/m 19,3 km/h (3 Bft) 100,00 %
14.01.2023 03:04 6,6 C 5,6 C 2,8 C 90 % 1016,4 hPa 0,0 l/m 0 min 0 min 0 W/m 16,1 km/h (3 Bft) 97,87 %
14.01.2023 03:06 6,6 C 5,6 C 2,8 C 90 % 1016,5 hPa 0,0 l/m 0 min 0 min 0 W/m 22,5 km/h (4 Bft) 98,28 %
14.01.2023 03:08 6,6 C 5,6 C 2,8 C 90 % 1016,4 hPa 0,0 l/m 0 min 0 min 0 W/m 19,3 km/h (3 Bft) 100,00 %
14.01.2023 03:10 6,7 C 5,6 C 2,8 C 90 % 1016,4 hPa 0,0 l/m 0 min 0 min 0 W/m 16,1 km/h (3 Bft) 100,00 %
14.01.2023 03:12 6,6 C 5,6 C 2,8 C 90 % 1016,3 hPa 0,0 l/m 0 min 0 min 0 W/m 16,1 km/h (3 Bft) 100,00 %
14.01.2023 03:14 6,6 C 5,6 C 2,8 C 90 % 1016,3 hPa 0,0 l/m 0 min 0 min 0 W/m 16,1 km/h (3 Bft) 97,87 %
14.01.2023 03:16 6,6 C 5,6 C 2,8 C 90 % 1016,3 hPa 0,0 l/m 0 min 0 min 0 W/m 16,1 km/h (3 Bft) 100,00 %
14.01.2023 03:21 6,6 C 5,6 C 2,8 C 90 % 1016,3 hPa 0,0 l/m 0 min 0 min 0 W/m 16,1 km/h (3 Bft) 96,36 %
14.01.2023 03:22 6,6 C 5,6 C 2,8 C 90 % 1016,3 hPa 0,0 l/m 0 min 0 min 0 W/m 9,7 km/h (2 Bft) 95,65 %
14.01.2023 03:24 6,5 C 5,6 C 2,8 C 90 % 1016,3 hPa 0,0 l/m 0 min 0 min 0 W/m 12,9 km/h (3 Bft) 100,00 %
14.01.2023 03:26 6,5 C 5,6 C 2,8 C 90 % 1016,3 hPa 0,0 l/m 0 min 0 min 0 W/m 16,1 km/h (3 Bft) 95,74 %
14.01.2023 03:28 6,5 C 5,6 C 2,8 C 90 % 1016,3 hPa 0,0 l/m 0 min 0 min 0 W/m 22,5 km/h (4 Bft) 100,00 %
14.01.2023 03:30 6,5 C 5,6 C 2,8 C 90 % 1016,4 hPa 0,0 l/m 0 min 0 min 0 W/m 16,1 km/h (3 Bft) 97,87 %
14.01.2023 03:32 6,5 C 5,6 C 2,8 C 90 % 1016,4 hPa 0,0 l/m 0 min 0 min 0 W/m 16,1 km/h (3 Bft) 100,00 %
14.01.2023 03:34 6,5 C 5,6 C 2,8 C 90 % 1016,3 hPa 0,0 l/m 0 min 0 min 0 W/m 12,9 km/h (3 Bft) 95,74 %
14.01.2023 03:36 6,5 C 5,6 C 2,8 C 90 % 1016,3 hPa 0,0 l/m 0 min 0 min 0 W/m 12,9 km/h (3 Bft) 84,78 %
14.01.2023 03:38 6,5 C 5,6 C 2,8 C 90 % 1016,3 hPa 0,0 l/m 0 min 0 min 0 W/m 22,5 km/h (4 Bft) 93,62 %
14.01.2023 03:40 6,5 C 5,6 C 2,8 C 90 % 1016,3 hPa 0,0 l/m 0 min 0 min 0 W/m 16,1 km/h (3 Bft) 95,74 %
14.01.2023 03:42 6,4 C 5,6 C 2,8 C 90 % 1016,2 hPa 0,0 l/m 0 min 0 min 0 W/m 22,5 km/h (4 Bft) 97,87 %
14.01.2023 03:44 6,4 C 5,6 C 2,8 C 91 % 1016,1 hPa 0,0 l/m 0 min 0 min 0 W/m 19,3 km/h (3 Bft) 95,74 %
14.01.2023 03:46 6,5 C 5,6 C 2,8 C 91 % 1016,2 hPa 0,0 l/m 0 min 0 min 0 W/m 29,0 km/h (5 Bft) 95,74 %
14.01.2023 03:48 6,5 C 5,6 C 2,8 C 91 % 1016,0 hPa 0,0 l/m 0 min 0 min 0 W/m 19,3 km/h (3 Bft) 93,48 %
14.01.2023 03:50 6,5 C 5,6 C 2,8 C 91 % 1016,0 hPa 0,0 l/m 0 min 0 min 0 W/m 16,1 km/h (3 Bft) 100,00 %
14.01.2023 03:52 6,5 C 6,1 C 2,8 C 90 % 1016,1 hPa 0,0 l/m 0 min 0 min 0 W/m 19,3 km/h (3 Bft) 93,62 %
14.01.2023 03:54 6,6 C 6,1 C 2,8 C 90 % 1015,9 hPa 0,0 l/m 0 min 0 min 0 W/m 9,7 km/h (2 Bft) 95,74 %
14.01.2023 03:56 6,6 C 6,1 C 2,8 C 90 % 1015,9 hPa 0,0 l/m 0 min 0 min 0 W/m 19,3 km/h (3 Bft) 95,74 %
14.01.2023 03:58 6,6 C 6,1 C 2,8 C 90 % 1015,8 hPa 0,0 l/m 0 min 0 min 0 W/m 22,5 km/h (4 Bft) 97,87 %
14.01.2023 04:00 6,6 C 6,1 C 2,8 C 90 % 1015,8 hPa 0,0 l/m 0 min 0 min 0 W/m 16,1 km/h (3 Bft) 95,74 %
14.01.2023 04:02 6,6 C 6,1 C 2,8 C 90 % 1015,8 hPa 0,0 l/m 0 min 0 min 0 W/m 12,9 km/h (3 Bft) 95,65 %
14.01.2023 04:04 6,6 C 6,1 C 2,8 C 90 % 1015,7 hPa 0,0 l/m 0 min 0 min 0 W/m 19,3 km/h (3 Bft) 95,74 %
14.01.2023 04:06 6,6 C 5,6 C 2,8 C 90 % 1015,6 hPa 0,0 l/m 0 min 0 min 0 W/m 12,9 km/h (3 Bft) 79,66 %
14.01.2023 04:08 6,6 C 5,6 C 2,8 C 90 % 1015,6 hPa 0,0 l/m 0 min 0 min 0 W/m 19,3 km/h (3 Bft) 88,57 %
14.01.2023 04:10 6,6 C 5,6 C 2,8 C 90 % 1015,6 hPa 0,0 l/m 0 min 0 min 0 W/m 19,3 km/h (3 Bft) 91,49 %
14.01.2023 04:12 6,5 C 5,6 C 2,8 C 90 % 1015,5 hPa 0,0 l/m 0 min 0 min 0 W/m 6,4 km/h (2 Bft) 85,11 %
14.01.2023 04:14 6,6 C 5,6 C 2,8 C 90 % 1015,5 hPa 0,0 l/m 0 min 0 min 0 W/m 9,7 km/h (2 Bft) 89,36 %
14.01.2023 04:16 6,5 C 5,6 C 2,8 C 90 % 1015,5 hPa 0,0 l/m 0 min 0 min 0 W/m 16,1 km/h (3 Bft) 89,36 %
14.01.2023 04:18 6,5 C 5,6 C 2,8 C 90 % 1015,6 hPa 0,0 l/m 0 min 0 min 0 W/m 6,4 km/h (2 Bft) 93,48 %
14.01.2023 04:20 6,5 C 5,6 C 2,8 C 90 % 1015,6 hPa 0,0 l/m 0 min 0 min 0 W/m 19,3 km/h (3 Bft) 93,62 %
14.01.2023 04:22 6,5 C 5,6 C 2,8 C 90 % 1015,5 hPa 0,0 l/m 0 min 0 min 0 W/m 9,7 km/h (2 Bft) 91,49 %
14.01.2023 04:24 6,5 C 5,6 C 2,8 C 90 % 1015,5 hPa 0,0 l/m 0 min 0 min 0 W/m 6,4 km/h (2 Bft) 72,34 %
14.01.2023 04:26 6,4 C 5,6 C 2,8 C 90 % 1015,5 hPa 0,0 l/m 0 min 0 min 0 W/m 12,9 km/h (3 Bft) 80,85 %
14.01.2023 04:28 6,4 C 5,6 C 2,8 C 90 % 1015,5 hPa 0,0 l/m 0 min 0 min 0 W/m 16,1 km/h (3 Bft) 85,11 %
14.01.2023 04:30 6,4 C 5,6 C 2,8 C 90 % 1015,5 hPa 0,0 l/m 0 min 0 min 0 W/m 12,9 km/h (3 Bft) 86,96 %
14.01.2023 04:32 6,4 C 5,6 C 2,8 C 90 % 1015,4 hPa 0,0 l/m 0 min 0 min 0 W/m 9,7 km/h (2 Bft) 70,21 %
14.01.2023 04:34 6,4 C 5,6 C 2,8 C 90 % 1015,4 hPa 0,0 l/m 0 min 0 min 0 W/m 12,9 km/h (3 Bft) 82,98 %
14.01.2023 04:36 6,4 C 5,6 C 2,8 C 90 % 1015,4 hPa 0,0 l/m 0 min 0 min 0 W/m 19,3 km/h (3 Bft) 91,49 %
14.01.2023 04:38 6,4 C 5,6 C 2,8 C 91 % 1015,4 hPa 0,0 l/m 0 min 0 min 0 W/m 22,5 km/h (4 Bft) 100,00 %
14.01.2023 04:40 6,4 C 5,6 C 2,8 C 91 % 1015,4 hPa 0,0 l/m 0 min 0 min 0 W/m 6,4 km/h (2 Bft) 95,74 %
14.01.2023 04:42 6,4 C 5,6 C 2,8 C 91 % 1015,4 hPa 0,0 l/m 0 min 0 min 0 W/m 12,9 km/h (3 Bft) 89,36 %
14.01.2023 04:44 6,3 C 5,6 C 2,8 C 91 % 1015,4 hPa 0,0 l/m 0 min 0 min 0 W/m 12,9 km/h (3 Bft) 95,65 %
14.01.2023 04:46 6,3 C 5,6 C 2,8 C 91 % 1015,4 hPa 0,0 l/m 0 min 0 min 0 W/m 12,9 km/h (3 Bft) 97,87 %
14.01.2023 04:48 6,3 C 5,6 C 2,8 C 91 % 1015,4 hPa 0,0 l/m 0 min 0 min 0 W/m 9,7 km/h (2 Bft) 97,87 %
14.01.2023 04:50 6,3 C 5,6 C 2,8 C 91 % 1015,4 hPa 0,0 l/m 0 min 0 min 0 W/m 12,9 km/h (3 Bft) 97,87 %
14.01.2023 04:52 6,3 C 5,6 C 2,8 C 91 % 1015,4 hPa 0,0 l/m 0 min 0 min 0 W/m 12,9 km/h (3 Bft) 95,74 %
14.01.2023 04:54 6,3 C 5,6 C 2,8 C 91 % 1015,4 hPa 0,0 l/m 0 min 0 min 0 W/m 9,7 km/h (2 Bft) 95,74 %
14.01.2023 04:56 6,3 C 5,6 C 2,8 C 91 % 1015,4 hPa 0,0 l/m 0 min 0 min 0 W/m 9,7 km/h (2 Bft) 95,74 %
14.01.2023 04:58 6,3 C 5,6 C 2,8 C 91 % 1015,3 hPa 0,0 l/m 0 min 0 min 0 W/m 12,9 km/h (3 Bft) 89,13 %
14.01.2023 05:00 6,3 C 5,6 C 2,8 C 91 % 1015,3 hPa 0,0 l/m 0 min 0 min 0 W/m 12,9 km/h (3 Bft) 72,34 %
14.01.2023 05:02 6,3 C 5,6 C 2,8 C 91 % 1015,2 hPa 0,0 l/m 0 min 0 min 0 W/m 12,9 km/h (3 Bft) 78,72 %
14.01.2023 05:04 6,3 C 5,6 C 2,8 C 91 % 1015,2 hPa 0,0 l/m 0 min 0 min 0 W/m 12,9 km/h (3 Bft) 78,72 %
14.01.2023 05:06 6,2 C 5,6 C 2,8 C 91 % 1015,2 hPa 0,0 l/m 0 min 0 min 0 W/m 12,9 km/h (3 Bft) 93,22 %
14.01.2023 05:08 6,2 C 5,6 C 2,8 C 91 % 1015,1 hPa 0,0 l/m 0 min 0 min 0 W/m 19,3 km/h (3 Bft) 91,43 %
14.01.2023 05:10 6,2 C 5,6 C 2,8 C 91 % 1015,1 hPa 0,0 l/m 0 min 0 min 0 W/m 9,7 km/h (2 Bft) 97,87 %
14.01.2023 05:12 6,2 C 5,6 C 2,8 C 91 % 1015,1 hPa 0,0 l/m 0 min 0 min 0 W/m 12,9 km/h (3 Bft) 97,87 %
14.01.2023 05:14 6,2 C 5,6 C 2,8 C 91 % 1015,1 hPa 0,0 l/m 0 min 0 min 0 W/m 12,9 km/h (3 Bft) 95,65 %
14.01.2023 05:16 6,2 C 5,6 C 2,8 C 91 % 1015,1 hPa 0,0 l/m 0 min 0 min 0 W/m 9,7 km/h (2 Bft) 95,74 %
14.01.2023 05:18 6,2 C 5,6 C 2,8 C 91 % 1015,1 hPa 0,0 l/m 0 min 0 min 0 W/m 12,9 km/h (3 Bft) 97,87 %
14.01.2023 05:20 6,2 C 5,6 C 2,8 C 91 % 1015,1 hPa 0,0 l/m 0 min 0 min 0 W/m 9,7 km/h (2 Bft) 95,74 %
14.01.2023 05:22 6,2 C 5,6 C 2,8 C 91 % 1015,0 hPa 0,0 l/m 0 min 0 min 0 W/m 9,7 km/h (2 Bft) 95,74 %
14.01.2023 05:24 6,2 C 5,6 C 2,2 C 91 % 1015,0 hPa 0,0 l/m 0 min 0 min 0 W/m 6,4 km/h (2 Bft) 97,87 %
14.01.2023 05:26 6,2 C 5,6 C 2,8 C 91 % 1015,0 hPa 0,0 l/m 0 min 0 min 0 W/m 16,1 km/h (3 Bft) 100,00 %
14.01.2023 05:28 6,2 C 5,6 C 2,8 C 91 % 1014,9 hPa 0,0 l/m 0 min 0 min 0 W/m 12,9 km/h (3 Bft) 100,00 %
14.01.2023 05:30 6,2 C 5,6 C 2,8 C 91 % 1014,9 hPa 0,0 l/m 0 min 0 min 0 W/m 16,1 km/h (3 Bft) 97,87 %
14.01.2023 05:32 6,2 C 5,6 C 2,8 C 91 % 1014,9 hPa 0,0 l/m 0 min 0 min 0 W/m 9,7 km/h (2 Bft) 97,87 %
14.01.2023 05:34 6,2 C 5,6 C 2,8 C 91 % 1014,8 hPa 0,0 l/m 0 min 0 min 0 W/m 12,9 km/h (3 Bft) 91,49 %
14.01.2023 05:36 6,2 C 5,6 C 2,8 C 91 % 1014,8 hPa 0,0 l/m 0 min 0 min 0 W/m 6,4 km/h (2 Bft) 95,65 %
14.01.2023 05:38 6,2 C 5,6 C 2,8 C 91 % 1014,7 hPa 0,0 l/m 0 min 0 min 0 W/m 12,9 km/h (3 Bft) 93,62 %
14.01.2023 05:40 6,2 C 5,6 C 2,8 C 91 % 1014,6 hPa 0,0 l/m 0 min 0 min 0 W/m 12,9 km/h (3 Bft) 100,00 %
14.01.2023 05:42 6,2 C 5,6 C 2,8 C 91 % 1014,6 hPa 0,0 l/m 0 min 0 min 0 W/m 6,4 km/h (2 Bft) 100,00 %
14.01.2023 05:44 6,2 C 5,6 C 2,8 C 91 % 1014,5 hPa 0,0 l/m 0 min 0 min 0 W/m 9,7 km/h (2 Bft) 95,74 %
14.01.2023 05:46 6,2 C 5,6 C 2,8 C 91 % 1014,4 hPa 0,0 l/m 0 min 0 min 0 W/m 12,9 km/h (3 Bft) 93,62 %
14.01.2023 05:48 6,2 C 5,6 C 2,8 C 91 % 1014,4 hPa 0,0 l/m 0 min 0 min 0 W/m 12,9 km/h (3 Bft) 87,23 %
14.01.2023 05:50 6,2 C 5,6 C 2,8 C 91 % 1014,3 hPa 0,0 l/m 0 min 0 min 0 W/m 12,9 km/h (3 Bft) 93,62 %
14.01.2023 05:52 6,2 C 5,6 C 2,8 C 91 % 1014,3 hPa 0,0 l/m 0 min 0 min 0 W/m 6,4 km/h (2 Bft) 97,87 %
14.01.2023 05:54 6,2 C 5,6 C 2,8 C 91 % 1014,3 hPa 0,0 l/m 0 min 0 min 0 W/m 6,4 km/h (2 Bft) 93,48 %
14.01.2023 05:56 6,2 C 5,6 C 2,8 C 91 % 1014,2 hPa 0,0 l/m 0 min 0 min 0 W/m 12,9 km/h (3 Bft) 80,85 %
14.01.2023 05:58 6,2 C 5,6 C 2,8 C 91 % 1014,2 hPa 0,0 l/m 0 min 0 min 0 W/m 12,9 km/h (3 Bft) 80,85 %
14.01.2023 06:00 6,2 C 5,6 C 2,8 C 91 % 1014,2 hPa 0,0 l/m 0 min 0 min 0 W/m 9,7 km/h (2 Bft) 95,74 %
14.01.2023 06:02 6,2 C 5,6 C 2,8 C 91 % 1014,1 hPa 0,0 l/m 0 min 0 min 0 W/m 16,1 km/h (3 Bft) 97,87 %
14.01.2023 06:04 6,2 C 5,6 C 2,8 C 91 % 1014,2 hPa 0,0 l/m 0 min 0 min 0 W/m 16,1 km/h (3 Bft) 95,74 %
14.01.2023 06:07 6,2 C 5,6 C 2,8 C 91 % 1014,1 hPa 0,0 l/m 0 min 0 min 0 W/m 12,9 km/h (3 Bft) 97,14 %
14.01.2023 06:08 6,2 C 5,6 C 2,8 C 91 % 1014,1 hPa 0,0 l/m 0 min 0 min 0 W/m 16,1 km/h (3 Bft) 95,65 %
14.01.2023 06:10 6,2 C 5,6 C 2,8 C 91 % 1014,0 hPa 0,0 l/m 0 min 0 min 0 W/m 12,9 km/h (3 Bft) 97,87 %
14.01.2023 06:12 6,2 C 5,6 C 2,8 C 91 % 1014,0 hPa 0,0 l/m 0 min 0 min 0 W/m 9,7 km/h (2 Bft) 98,11 %
14.01.2023 06:14 6,2 C 5,6 C 2,8 C 91 % 1014,1 hPa 0,0 l/m 0 min 0 min 0 W/m 9,7 km/h (2 Bft) 97,87 %
14.01.2023 06:16 6,2 C 5,6 C 2,8 C 91 % 1014,0 hPa 0,0 l/m 0 min 0 min 0 W/m 16,1 km/h (3 Bft) 97,87 %
14.01.2023 06:18 6,2 C 5,6 C 2,8 C 91 % 1014,0 hPa 0,0 l/m 0 min 0 min 0 W/m 12,9 km/h (3 Bft) 97,87 %
14.01.2023 06:20 6,2 C 5,6 C 2,8 C 91 % 1013,9 hPa 0,0 l/m 0 min 0 min 0 W/m 12,9 km/h (3 Bft) 97,87 %
14.01.2023 06:22 6,2 C 5,6 C 2,8 C 91 % 1013,9 hPa 0,0 l/m 0 min 0 min 0 W/m 12,9 km/h (3 Bft) 97,87 %
14.01.2023 06:24 6,2 C 5,6 C 2,8 C 91 % 1013,9 hPa 0,0 l/m 0 min 0 min 0 W/m 19,3 km/h (3 Bft) 97,83 %
14.01.2023 06:26 6,2 C 5,6 C 2,8 C 91 % 1013,9 hPa 0,0 l/m 0 min 0 min 0 W/m 12,9 km/h (3 Bft) 95,74 %
14.01.2023 06:28 6,2 C 5,6 C 2,8 C 91 % 1013,9 hPa 0,0 l/m 0 min 0 min 0 W/m 22,5 km/h (4 Bft) 93,62 %
14.01.2023 06:30 6,2 C 5,6 C 2,8 C 91 % 1013,9 hPa 0,0 l/m 0 min 0 min 0 W/m 16,1 km/h (3 Bft) 100,00 %
14.01.2023 06:32 6,2 C 5,6 C 2,8 C 91 % 1013,9 hPa 0,0 l/m 0 min 0 min 0 W/m 19,3 km/h (3 Bft) 100,00 %
14.01.2023 06:34 6,2 C 5,6 C 2,8 C 91 % 1013,9 hPa 0,0 l/m 0 min 0 min 0 W/m 16,1 km/h (3 Bft) 100,00 %
14.01.2023 06:36 6,2 C 5,6 C 2,8 C 91 % 1013,8 hPa 0,0 l/m 0 min 0 min 0 W/m 6,4 km/h (2 Bft) 97,87 %
14.01.2023 06:38 6,2 C 5,6 C 2,8 C 91 % 1013,7 hPa 0,0 l/m 0 min 0 min 0 W/m 16,1 km/h (3 Bft) 93,48 %
14.01.2023 06:40 6,2 C 5,6 C 2,8 C 91 % 1013,7 hPa 0,0 l/m 0 min 0 min 0 W/m 16,1 km/h (3 Bft) 97,87 %
14.01.2023 06:42 6,2 C 5,6 C 2,8 C 91 % 1013,6 hPa 0,0 l/m 0 min 0 min 0 W/m 19,3 km/h (3 Bft) 97,87 %
14.01.2023 06:44 6,3 C 5,6 C 2,8 C 91 % 1013,6 hPa 0,0 l/m 0 min 0 min 0 W/m 12,9 km/h (3 Bft) 97,87 %
14.01.2023 06:46 6,3 C 5,6 C 2,8 C 91 % 1013,6 hPa 0,0 l/m 0 min 0 min 0 W/m 12,9 km/h (3 Bft) 95,74 %
14.01.2023 06:48 6,3 C 5,6 C 2,8 C 91 % 1013,5 hPa 0,0 l/m 0 min 0 min 0 W/m 12,9 km/h (3 Bft) 97,87 %
14.01.2023 06:50 6,3 C 5,6 C 2,8 C 91 % 1013,5 hPa 0,0 l/m 0 min 0 min 0 W/m 12,9 km/h (3 Bft) 95,74 %
14.01.2023 06:52 6,3 C 5,6 C 2,8 C 91 % 1013,4 hPa 0,0 l/m 0 min 0 min 0 W/m 9,7 km/h (2 Bft) 97,87 %
14.01.2023 06:54 6,3 C 5,6 C 2,8 C 91 % 1013,4 hPa 0,0 l/m 0 min 0 min 0 W/m 9,7 km/h (2 Bft) 97,83 %
14.01.2023 06:56 6,3 C 5,6 C 2,8 C 91 % 1013,4 hPa 0,0 l/m 0 min 0 min 0 W/m 6,4 km/h (2 Bft) 93,62 %
14.01.2023 06:58 6,3 C 5,6 C 2,8 C 91 % 1013,3 hPa 0,0 l/m 0 min 0 min 0 W/m 9,7 km/h (2 Bft) 97,87 %
14.01.2023 07:00 6,3 C 5,6 C 2,8 C 91 % 1013,3 hPa 0,0 l/m 0 min 0 min 0 W/m 9,7 km/h (2 Bft) 95,74 %
14.01.2023 07:02 6,3 C 5,6 C 2,8 C 91 % 1013,2 hPa 0,0 l/m 0 min 0 min 0 W/m 9,7 km/h (2 Bft) 93,62 %
14.01.2023 07:04 6,3 C 5,6 C 2,8 C 91 % 1013,2 hPa 0,0 l/m 0 min 0 min 0 W/m 9,7 km/h (2 Bft) 95,74 %
14.01.2023 07:06 6,3 C 5,6 C 2,8 C 91 % 1013,2 hPa 0,0 l/m 0 min 0 min 0 W/m 9,7 km/h (2 Bft) 97,87 %
14.01.2023 07:08 6,3 C 5,6 C 2,8 C 91 % 1013,2 hPa 0,0 l/m 0 min 0 min 0 W/m 16,1 km/h (3 Bft) 97,83 %
14.01.2023 07:10 6,3 C 5,6 C 2,8 C 91 % 1013,1 hPa 0,0 l/m 0 min 0 min 0 W/m 12,9 km/h (3 Bft) 93,62 %
14.01.2023 07:12 6,3 C 5,6 C 2,8 C 91 % 1013,1 hPa 0,0 l/m 0 min 0 min 0 W/m 16,1 km/h (3 Bft) 95,74 %
14.01.2023 07:14 6,3 C 5,6 C 2,8 C 91 % 1013,0 hPa 0,0 l/m 0 min 0 min 0 W/m 12,9 km/h (3 Bft) 93,62 %
14.01.2023 07:16 6,3 C 5,6 C 2,8 C 91 % 1013,0 hPa 0,0 l/m 0 min 0 min 0 W/m 12,9 km/h (3 Bft) 95,74 %
14.01.2023 07:18 6,3 C 5,6 C 2,8 C 91 % 1012,9 hPa 0,0 l/m 0 min 0 min 0 W/m 19,3 km/h (3 Bft) 95,74 %
14.01.2023 07:20 6,3 C 5,6 C 2,8 C 90 % 1012,8 hPa 0,0 l/m 0 min 0 min 0 W/m 12,9 km/h (3 Bft) 95,74 %
14.01.2023 07:22 6,3 C 6,1 C 2,8 C 90 % 1012,8 hPa 0,0 l/m 0 min 0 min 0 W/m 12,9 km/h (3 Bft) 91,67 %
14.01.2023 07:24 6,3 C 6,1 C 2,8 C 90 % 1012,7 hPa 0,0 l/m 0 min 0 min 0 W/m 16,1 km/h (3 Bft) 97,87 %
14.01.2023 07:26 6,3 C 6,1 C 2,8 C 90 % 1012,7 hPa 0,0 l/m 0 min 0 min 0 W/m 6,4 km/h (2 Bft) 93,48 %
14.01.2023 07:28 6,4 C 6,1 C 2,8 C 90 % 1012,6 hPa 0,0 l/m 0 min 0 min 0 W/m 12,9 km/h (3 Bft) 97,87 %
14.01.2023 07:30 6,4 C 6,1 C 2,8 C 90 % 1012,6 hPa 0,0 l/m 0 min 0 min 0 W/m 16,1 km/h (3 Bft) 97,87 %
14.01.2023 07:32 6,4 C 6,1 C 2,8 C 90 % 1012,6 hPa 0,0 l/m 0 min 0 min 0 W/m 9,7 km/h (2 Bft) 97,87 %
14.01.2023 07:34 6,4 C 6,1 C 2,8 C 90 % 1012,5 hPa 0,0 l/m 0 min 0 min 0 W/m 19,3 km/h (3 Bft) 95,74 %
14.01.2023 07:36 6,4 C 6,1 C 2,8 C 90 % 1012,5 hPa 0,0 l/m 0 min 0 min 0 W/m 12,9 km/h (3 Bft) 97,87 %
14.01.2023 07:38 6,4 C 6,1 C 2,8 C 89 % 1012,4 hPa 0,0 l/m 0 min 0 min 0 W/m 16,1 km/h (3 Bft) 97,87 %
14.01.2023 07:40 6,5 C 6,1 C 2,8 C 89 % 1012,4 hPa 0,0 l/m 0 min 0 min 0 W/m 9,7 km/h (2 Bft) 95,74 %
14.01.2023 07:42 6,5 C 6,1 C 2,8 C 89 % 1012,4 hPa 0,0 l/m 0 min 0 min 0 W/m 12,9 km/h (3 Bft) 97,83 %
14.01.2023 07:44 6,5 C 6,1 C 2,8 C 89 % 1012,4 hPa 0,0 l/m 0 min 0 min 0 W/m 16,1 km/h (3 Bft) 95,74 %
14.01.2023 07:46 6,5 C 6,1 C 2,8 C 89 % 1012,3 hPa 0,0 l/m 0 min 2 min 0 W/m 12,9 km/h (3 Bft) 95,74 %
14.01.2023 07:48 6,5 C 6,1 C 2,8 C 89 % 1012,3 hPa 0,0 l/m 0 min 2 min 0 W/m 19,3 km/h (3 Bft) 95,74 %
14.01.2023 07:50 6,5 C 6,1 C 2,8 C 89 % 1012,2 hPa 0,0 l/m 0 min 2 min 0 W/m 16,1 km/h (3 Bft) 97,87 %
14.01.2023 07:52 6,6 C 6,1 C 2,2 C 89 % 1012,2 hPa 0,0 l/m 0 min 2 min 0 W/m 19,3 km/h (3 Bft) 95,74 %
14.01.2023 07:54 6,6 C 6,1 C 2,2 C 89 % 1012,1 hPa 0,0 l/m 0 min 2 min 0 W/m 12,9 km/h (3 Bft) 94,74 %
14.01.2023 07:56 6,6 C 6,1 C 2,2 C 89 % 1012,1 hPa 0,0 l/m 0 min 2 min 0 W/m 12,9 km/h (3 Bft) 97,87 %
14.01.2023 07:58 6,6 C 5,6 C 2,2 C 89 % 1012,0 hPa 0,0 l/m 0 min 2 min 0 W/m 12,9 km/h (3 Bft) 97,87 %
14.01.2023 08:00 6,6 C 5,6 C 2,2 C 89 % 1011,9 hPa 0,0 l/m 0 min 2 min 0 W/m 16,1 km/h (3 Bft) 97,87 %
14.01.2023 08:02 6,6 C 5,6 C 2,2 C 89 % 1011,9 hPa 0,0 l/m 0 min 2 min 0 W/m 22,5 km/h (4 Bft) 95,74 %
14.01.2023 08:04 6,6 C 5,6 C 2,2 C 89 % 1011,8 hPa 0,2 l/m 0 min 2 min 0 W/m 22,5 km/h (4 Bft) 97,87 %
14.01.2023 08:06 6,6 C 5,6 C 2,2 C 90 % 1011,8 hPa 0,0 l/m 0 min 2 min 0 W/m 6,4 km/h (2 Bft) 95,74 %
14.01.2023 08:08 6,6 C 5,6 C 2,2 C 90 % 1011,8 hPa 0,0 l/m 0 min 2 min 0 W/m 12,9 km/h (3 Bft) 91,30 %
14.01.2023 08:10 6,6 C 5,6 C 2,2 C 90 % 1011,6 hPa 0,0 l/m 0 min 2 min 0 W/m 16,1 km/h (3 Bft) 100,00 %
14.01.2023 08:12 6,6 C 5,6 C 2,2 C 90 % 1011,6 hPa 0,0 l/m 0 min 2 min 0 W/m 12,9 km/h (3 Bft) 96,55 %
14.01.2023 08:14 6,6 C 5,6 C 2,2 C 90 % 1011,6 hPa 0,0 l/m 0 min 2 min 0 W/m 16,1 km/h (3 Bft) 100,00 %
14.01.2023 08:16 6,6 C 5,6 C 2,2 C 90 % 1011,6 hPa 0,0 l/m 0 min 2 min 0 W/m 16,1 km/h (3 Bft) 93,62 %
14.01.2023 08:18 6,6 C 5,6 C 2,2 C 90 % 1011,5 hPa 0,0 l/m 0 min 2 min 0 W/m 12,9 km/h (3 Bft) 97,87 %
14.01.2023 08:20 6,6 C 5,6 C 2,2 C 90 % 1011,5 hPa 0,0 l/m 0 min 2 min 0 W/m 16,1 km/h (3 Bft) 97,87 %
14.01.2023 08:22 6,5 C 5,6 C 2,2 C 91 % 1011,4 hPa 0,0 l/m 0 min 2 min 0 W/m 22,5 km/h (4 Bft) 97,87 %
14.01.2023 08:24 6,5 C 5,6 C 2,2 C 91 % 1011,4 hPa 0,0 l/m 0 min 2 min 0 W/m 16,1 km/h (3 Bft) 100,00 %
14.01.2023 08:26 6,5 C 5,6 C 2,2 C 91 % 1011,3 hPa 0,0 l/m 0 min 2 min 0 W/m 19,3 km/h (3 Bft) 100,00 %
14.01.2023 08:28 6,5 C 5,6 C 2,2 C 91 % 1011,2 hPa 0,0 l/m 0 min 2 min 0 W/m 16,1 km/h (3 Bft) 100,00 %
14.01.2023 08:30 6,5 C 5,6 C 2,2 C 91 % 1011,1 hPa 0,2 l/m 0 min 2 min 0 W/m 19,3 km/h (3 Bft) 100,00 %
14.01.2023 08:32 6,5 C 5,6 C 2,2 C 91 % 1011,1 hPa 0,0 l/m 0 min 2 min 0 W/m 19,3 km/h (3 Bft) 100,00 %
14.01.2023 08:34 6,5 C 5,6 C 2,2 C 91 % 1011,1 hPa 0,0 l/m 0 min 2 min 0 W/m 19,3 km/h (3 Bft) 100,00 %
14.01.2023 08:36 6,5 C 5,6 C 2,2 C 91 % 1011,1 hPa 0,0 l/m 0 min 2 min 0 W/m 19,3 km/h (3 Bft) 100,00 %
14.01.2023 08:38 6,5 C 5,6 C 2,2 C 92 % 1011,1 hPa 0,2 l/m 0 min 2 min 0 W/m 19,3 km/h (3 Bft) 100,00 %
14.01.2023 08:40 6,4 C 5,6 C 2,2 C 92 % 1011,0 hPa 0,0 l/m 0 min 2 min 0 W/m 19,3 km/h (3 Bft) 100,00 %
14.01.2023 08:42 6,4 C 5,6 C 2,2 C 92 % 1010,9 hPa 0,0 l/m 0 min 2 min 0 W/m 19,3 km/h (3 Bft) 100,00 %
14.01.2023 08:44 6,4 C 5,6 C 2,2 C 92 % 1010,9 hPa 0,0 l/m 0 min 2 min 0 W/m 12,9 km/h (3 Bft) 100,00 %
14.01.2023 08:46 6,4 C 5,6 C 2,2 C 92 % 1010,9 hPa 0,0 l/m 0 min 2 min 0 W/m 22,5 km/h (4 Bft) 100,00 %
14.01.2023 08:48 6,4 C 5,6 C 2,2 C 92 % 1010,8 hPa 0,0 l/m 0 min 2 min 0 W/m 19,3 km/h (3 Bft) 100,00 %
14.01.2023 08:50 6,4 C 5,6 C 2,2 C 92 % 1010,8 hPa 0,0 l/m 0 min 2 min 0 W/m 16,1 km/h (3 Bft) 100,00 %
14.01.2023 08:52 6,4 C 5,6 C 2,2 C 92 % 1010,8 hPa 0,2 l/m 0 min 2 min 0 W/m 16,1 km/h (3 Bft) 100,00 %
14.01.2023 08:54 6,4 C 5,6 C 2,2 C 93 % 1010,7 hPa 0,0 l/m 0 min 2 min 0 W/m 19,3 km/h (3 Bft) 100,00 %
14.01.2023 08:56 6,4 C 5,6 C 2,2 C 93 % 1010,7 hPa 0,0 l/m 0 min 2 min 0 W/m 25,7 km/h (4 Bft) 100,00 %
14.01.2023 08:58 6,4 C 5,6 C 2,2 C 93 % 1010,7 hPa 0,0 l/m 0 min 2 min 0 W/m 12,9 km/h (3 Bft) 100,00 %
14.01.2023 09:00 6,4 C 5,6 C 2,2 C 93 % 1010,6 hPa 0,0 l/m 0 min 2 min 0 W/m 16,1 km/h (3 Bft) 95,74 %
14.01.2023 09:02 6,4 C 5,6 C 2,2 C 93 % 1010,6 hPa 0,2 l/m 0 min 2 min 4 W/m 16,1 km/h (3 Bft) 100,00 %
14.01.2023 09:04 6,4 C 5,6 C 2,2 C 93 % 1010,6 hPa 0,0 l/m 0 min 2 min 5 W/m 16,1 km/h (3 Bft) 97,87 %
14.01.2023 09:06 6,4 C 5,6 C 2,2 C 93 % 1010,4 hPa 0,0 l/m 0 min 2 min 5 W/m 22,5 km/h (4 Bft) 100,00 %
14.01.2023 09:08 6,4 C 5,6 C 2,2 C 93 % 1010,5 hPa 0,0 l/m 0 min 0 min 5 W/m 19,3 km/h (3 Bft) 100,00 %
14.01.2023 09:10 6,4 C 5,6 C 2,2 C 93 % 1010,4 hPa 0,0 l/m 0 min 2 min 5 W/m 12,9 km/h (3 Bft) 97,87 %
14.01.2023 09:12 6,4 C 5,6 C 2,2 C 93 % 1010,4 hPa 0,0 l/m 0 min 0 min 7 W/m 16,1 km/h (3 Bft) 100,00 %
14.01.2023 09:14 6,4 C 5,6 C 2,2 C 93 % 1010,3 hPa 0,0 l/m 0 min 2 min 7 W/m 16,1 km/h (3 Bft) 100,00 %
14.01.2023 09:16 6,4 C 5,6 C 2,2 C 93 % 1010,2 hPa 0,0 l/m 0 min 0 min 7 W/m 16,1 km/h (3 Bft) 100,00 %
14.01.2023 09:18 6,4 C 5,6 C 2,2 C 93 % 1010,1 hPa 0,0 l/m 0 min 0 min 8 W/m 19,3 km/h (3 Bft) 97,87 %
14.01.2023 09:20 6,4 C 5,6 C 2,2 C 94 % 1010,1 hPa 0,0 l/m 0 min 0 min 10 W/m 19,3 km/h (3 Bft) 100,00 %
14.01.2023 09:22 6,4 C 5,6 C 2,2 C 94 % 1010,1 hPa 0,0 l/m 0 min 0 min 11 W/m 22,5 km/h (4 Bft) 97,87 %
14.01.2023 09:24 6,4 C 5,6 C 2,2 C 94 % 1010,0 hPa 0,0 l/m 0 min 0 min 12 W/m 19,3 km/h (3 Bft) 97,87 %
14.01.2023 09:26 6,4 C 5,6 C 2,2 C 94 % 1010,0 hPa 0,0 l/m 0 min 0 min 12 W/m 12,9 km/h (3 Bft) 100,00 %
14.01.2023 09:28 6,4 C 5,6 C 2,2 C 94 % 1010,0 hPa 0,0 l/m 0 min 0 min 12 W/m 19,3 km/h (3 Bft) 95,74 %
14.01.2023 09:30 6,5 C 5,6 C 2,2 C 94 % 1010,0 hPa 0,0 l/m 0 min 0 min 13 W/m 19,3 km/h (3 Bft) 95,74 %
14.01.2023 09:32 6,5 C 5,6 C 2,2 C 94 % 1009,9 hPa 0,0 l/m 0 min 0 min 13 W/m 19,3 km/h (3 Bft) 97,87 %
14.01.2023 09:34 6,5 C 6,1 C 2,2 C 94 % 1009,9 hPa 0,0 l/m 0 min 0 min 16 W/m 19,3 km/h (3 Bft) 97,83 %
14.01.2023 09:36 6,5 C 6,1 C 2,2 C 94 % 1009,8 hPa 0,0 l/m 0 min 0 min 17 W/m 16,1 km/h (3 Bft) 91,49 %
14.01.2023 09:38 6,5 C 6,1 C 2,8 C 94 % 1009,8 hPa 0,0 l/m 0 min 0 min 16 W/m 16,1 km/h (3 Bft) 95,74 %
14.01.2023 09:40 6,5 C 6,1 C 2,8 C 94 % 1009,8 hPa 0,0 l/m 0 min 0 min 14 W/m 16,1 km/h (3 Bft) 93,62 %
14.01.2023 09:42 6,6 C 6,1 C 2,8 C 94 % 1009,7 hPa 0,0 l/m 0 min 0 min 18 W/m 16,1 km/h (3 Bft) 93,62 %
14.01.2023 09:44 6,6 C 6,1 C 2,8 C 94 % 1009,6 hPa 0,0 l/m 0 min 0 min 18 W/m 16,1 km/h (3 Bft) 95,74 %
14.01.2023 09:46 6,6 C 6,1 C 2,8 C 94 % 1009,5 hPa 0,0 l/m 0 min 0 min 22 W/m 9,7 km/h (2 Bft) 93,62 %
14.01.2023 09:48 6,6 C 6,1 C 2,8 C 94 % 1009,4 hPa 0,0 l/m 0 min 0 min 23 W/m 6,4 km/h (2 Bft) 91,30 %
14.01.2023 09:50 6,6 C 6,1 C 2,8 C 94 % 1009,4 hPa 0,0 l/m 0 min 0 min 25 W/m 19,3 km/h (3 Bft) 93,62 %
14.01.2023 09:52 6,7 C 6,1 C 2,8 C 94 % 1009,3 hPa 0,0 l/m 0 min 0 min 26 W/m 16,1 km/h (3 Bft) 91,49 %
14.01.2023 09:54 6,7 C 6,1 C 2,8 C 94 % 1009,2 hPa 0,0 l/m 0 min 0 min 26 W/m 12,9 km/h (3 Bft) 91,49 %
14.01.2023 09:56 6,7 C 6,1 C 2,8 C 94 % 1009,3 hPa 0,0 l/m 0 min 0 min 23 W/m 16,1 km/h (3 Bft) 93,62 %
14.01.2023 09:58 6,8 C 6,1 C 2,8 C 94 % 1009,2 hPa 0,0 l/m 0 min 0 min 19 W/m 12,9 km/h (3 Bft) 91,49 %
14.01.2023 10:00 6,8 C 6,7 C 2,8 C 94 % 1009,1 hPa 0,0 l/m 0 min 0 min 19 W/m 19,3 km/h (3 Bft) 93,62 %
14.01.2023 10:02 6,8 C 6,7 C 2,8 C 94 % 1009,0 hPa 0,0 l/m 0 min 0 min 17 W/m 19,3 km/h (3 Bft) 93,48 %
14.01.2023 10:04 6,8 C 6,7 C 2,8 C 94 % 1008,9 hPa 0,0 l/m 0 min 0 min 20 W/m 22,5 km/h (4 Bft) 91,49 %
14.01.2023 10:06 6,9 C 6,7 C 2,8 C 95 % 1008,9 hPa 0,0 l/m 0 min 0 min 24 W/m 12,9 km/h (3 Bft) 91,53 %
14.01.2023 10:08 6,9 C 6,7 C 2,8 C 95 % 1008,8 hPa 0,0 l/m 0 min 0 min 25 W/m 16,1 km/h (3 Bft) 94,29 %
14.01.2023 10:10 6,9 C 6,7 C 2,8 C 95 % 1008,8 hPa 0,0 l/m 0 min 0 min 25 W/m 12,9 km/h (3 Bft) 89,36 %
14.01.2023 10:12 6,9 C 6,7 C 2,8 C 95 % 1008,7 hPa 0,0 l/m 0 min 0 min 25 W/m 16,1 km/h (3 Bft) 93,62 %
14.01.2023 10:14 6,9 C 6,7 C 2,8 C 94 % 1008,6 hPa 0,0 l/m 0 min 0 min 24 W/m 19,3 km/h (3 Bft) 95,74 %
14.01.2023 10:16 7,0 C 6,7 C 2,8 C 94 % 1008,6 hPa 0,0 l/m 0 min 0 min 20 W/m 16,1 km/h (3 Bft) 93,48 %
14.01.2023 10:18 7,1 C 6,7 C 2,8 C 94 % 1008,6 hPa 0,0 l/m 0 min 0 min 17 W/m 29,0 km/h (5 Bft) 97,87 %
14.01.2023 10:20 7,1 C 6,7 C 2,8 C 94 % 1008,4 hPa 0,0 l/m 0 min 0 min 18 W/m 19,3 km/h (3 Bft) 97,87 %
14.01.2023 10:22 7,1 C 6,7 C 2,8 C 94 % 1008,5 hPa 0,0 l/m 0 min 0 min 19 W/m 22,5 km/h (4 Bft) 97,87 %
14.01.2023 10:24 7,1 C 6,7 C 2,8 C 94 % 1008,3 hPa 0,0 l/m 0 min 0 min 17 W/m 19,3 km/h (3 Bft) 95,74 %
14.01.2023 10:26 7,1 C 6,7 C 2,8 C 94 % 1008,3 hPa 0,0 l/m 0 min 0 min 17 W/m 16,1 km/h (3 Bft) 95,74 %
14.01.2023 10:28 7,2 C 6,7 C 2,8 C 94 % 1008,3 hPa 0,0 l/m 0 min 0 min 14 W/m 22,5 km/h (4 Bft) 100,00 %
14.01.2023 10:30 7,2 C 6,7 C 3,3 C 94 % 1008,3 hPa 0,0 l/m 0 min 0 min 12 W/m 22,5 km/h (4 Bft) 97,83 %
14.01.2023 10:32 7,2 C 6,7 C 3,3 C 94 % 1008,2 hPa 0,0 l/m 0 min 0 min 14 W/m 25,7 km/h (4 Bft) 100,00 %
14.01.2023 10:34 7,2 C 6,7 C 3,3 C 94 % 1008,1 hPa 0,0 l/m 0 min 0 min 16 W/m 19,3 km/h (3 Bft) 97,87 %
14.01.2023 10:36 7,3 C 7,2 C 3,3 C 94 % 1008,1 hPa 0,0 l/m 0 min 0 min 15 W/m 16,1 km/h (3 Bft) 100,00 %
14.01.2023 10:38 7,3 C 7,2 C 3,3 C 94 % 1008,1 hPa 0,0 l/m 0 min 0 min 17 W/m 16,1 km/h (3 Bft) 100,00 %
14.01.2023 10:40 7,3 C 7,2 C 3,3 C 94 % 1008,0 hPa 0,0 l/m 0 min 0 min 20 W/m 12,9 km/h (3 Bft) 100,00 %
14.01.2023 10:42 7,3 C 7,2 C 3,3 C 94 % 1007,9 hPa 0,0 l/m 0 min 0 min 21 W/m 16,1 km/h (3 Bft) 100,00 %
14.01.2023 10:44 7,4 C 7,2 C 3,3 C 94 % 1007,9 hPa 0,0 l/m 0 min 0 min 21 W/m 16,1 km/h (3 Bft) 97,83 %
14.01.2023 10:46 7,4 C 7,2 C 3,3 C 94 % 1007,8 hPa 0,0 l/m 0 min 0 min 27 W/m 29,0 km/h (5 Bft) 100,00 %
14.01.2023 10:48 7,4 C 7,2 C 3,3 C 94 % 1007,7 hPa 0,0 l/m 0 min 0 min 30 W/m 22,5 km/h (4 Bft) 100,00 %
14.01.2023 10:50 7,4 C 7,2 C 3,3 C 94 % 1007,6 hPa 0,0 l/m 0 min 0 min 28 W/m 19,3 km/h (3 Bft) 100,00 %
14.01.2023 10:52 7,5 C 7,2 C 3,3 C 93 % 1007,7 hPa 0,0 l/m 0 min 0 min 23 W/m 35,4 km/h (5 Bft) 100,00 %
14.01.2023 10:54 7,5 C 7,2 C 3,3 C 93 % 1007,6 hPa 0,0 l/m 0 min 0 min 20 W/m 16,1 km/h (3 Bft) 100,00 %
14.01.2023 10:56 7,6 C 7,2 C 3,3 C 93 % 1007,6 hPa 0,0 l/m 0 min 0 min 21 W/m 19,3 km/h (3 Bft) 100,00 %
14.01.2023 10:58 7,6 C 7,2 C 3,3 C 93 % 1007,5 hPa 0,0 l/m 0 min 2 min 20 W/m 16,1 km/h (3 Bft) 100,00 %
14.01.2023 11:00 7,6 C 7,2 C 3,3 C 93 % 1007,5 hPa 0,0 l/m 0 min 2 min 21 W/m 19,3 km/h (3 Bft) 100,00 %
14.01.2023 11:02 7,6 C 7,2 C 3,3 C 93 % 1007,5 hPa 0,0 l/m 0 min 2 min 19 W/m 19,3 km/h (3 Bft) 100,00 %
14.01.2023 11:04 7,7 C 7,2 C 3,3 C 93 % 1007,5 hPa 0,2 l/m 0 min 2 min 20 W/m 19,3 km/h (3 Bft) 100,00 %
14.01.2023 11:06 7,7 C 7,2 C 3,3 C 93 % 1007,4 hPa 0,0 l/m 0 min 2 min 21 W/m 22,5 km/h (4 Bft) 100,00 %
14.01.2023 11:08 7,7 C 7,2 C 3,3 C 93 % 1007,3 hPa 0,0 l/m 0 min 2 min 21 W/m 19,3 km/h (3 Bft) 100,00 %
14.01.2023 11:10 7,7 C 7,2 C 3,3 C 93 % 1007,2 hPa 0,2 l/m 0 min 2 min 20 W/m 19,3 km/h (3 Bft) 100,00 %
14.01.2023 11:12 7,8 C 7,2 C 3,3 C 93 % 1007,1 hPa 0,0 l/m 0 min 2 min 19 W/m 19,3 km/h (3 Bft) 100,00 %
14.01.2023 11:14 7,8 C 6,7 C 3,3 C 93 % 1007,1 hPa 0,2 l/m 0 min 2 min 18 W/m 22,5 km/h (4 Bft) 100,00 %
14.01.2023 11:16 7,8 C 6,7 C 3,3 C 93 % 1007,1 hPa 0,0 l/m 0 min 2 min 17 W/m 16,1 km/h (3 Bft) 89,36 %
14.01.2023 11:18 7,8 C 6,7 C 3,3 C 93 % 1007,0 hPa 0,2 l/m 0 min 2 min 19 W/m 16,1 km/h (3 Bft) 61,54 %
14.01.2023 11:20 7,8 C 6,7 C 3,3 C 93 % 1007,0 hPa 0,0 l/m 0 min 2 min 20 W/m 16,1 km/h (3 Bft) 100,00 %
14.01.2023 11:22 7,8 C 6,7 C 3,3 C 93 % 1006,9 hPa 0,0 l/m 0 min 2 min 19 W/m 12,9 km/h (3 Bft) 100,00 %
14.01.2023 11:24 7,8 C 6,7 C 3,3 C 93 % 1006,9 hPa 0,2 l/m 0 min 2 min 19 W/m 16,1 km/h (3 Bft) 97,87 %
14.01.2023 11:26 7,8 C 6,7 C 3,3 C 93 % 1006,8 hPa 0,0 l/m 0 min 2 min 18 W/m 19,3 km/h (3 Bft) 100,00 %
14.01.2023 11:28 7,8 C 6,7 C 3,3 C 93 % 1006,7 hPa 0,2 l/m 0 min 2 min 17 W/m 12,9 km/h (3 Bft) 97,87 %
14.01.2023 11:30 7,8 C 6,7 C 3,3 C 94 % 1006,7 hPa 0,0 l/m 0 min 2 min 18 W/m 16,1 km/h (3 Bft) 100,00 %
14.01.2023 11:32 7,8 C 6,7 C 3,3 C 94 % 1006,6 hPa 0,0 l/m 0 min 2 min 20 W/m 22,5 km/h (4 Bft) 97,87 %
14.01.2023 11:34 7,8 C 6,7 C 3,3 C 94 % 1006,5 hPa 0,2 l/m 0 min 2 min 19 W/m 16,1 km/h (3 Bft) 100,00 %
14.01.2023 11:36 7,8 C 6,7 C 3,3 C 94 % 1006,5 hPa 0,0 l/m 0 min 2 min 19 W/m 19,3 km/h (3 Bft) 100,00 %
14.01.2023 11:38 7,8 C 6,7 C 3,3 C 94 % 1006,4 hPa 0,2 l/m 0 min 2 min 18 W/m 22,5 km/h (4 Bft) 97,87 %
14.01.2023 11:40 7,8 C 6,7 C 3,3 C 94 % 1006,4 hPa 0,0 l/m 0 min 2 min 18 W/m 19,3 km/h (3 Bft) 97,96 %
14.01.2023 11:42 7,8 C 6,7 C 3,3 C 94 % 1006,4 hPa 0,0 l/m 0 min 2 min 18 W/m 12,9 km/h (3 Bft) 98,00 %
14.01.2023 11:44 7,8 C 6,7 C 3,9 C 94 % 1006,4 hPa 0,0 l/m 0 min 2 min 17 W/m 16,1 km/h (3 Bft) 93,62 %
14.01.2023 11:46 7,8 C 6,7 C 3,9 C 94 % 1006,4 hPa 0,2 l/m 0 min 2 min 18 W/m 16,1 km/h (3 Bft) 95,65 %
14.01.2023 11:48 7,8 C 6,7 C 3,9 C 94 % 1006,4 hPa 0,0 l/m 0 min 2 min 20 W/m 19,3 km/h (3 Bft) 97,22 %
14.01.2023 11:50 7,8 C 6,7 C 3,9 C 94 % 1006,3 hPa 0,2 l/m 0 min 2 min 21 W/m 22,5 km/h (4 Bft) 96,43 %
14.01.2023 11:52 7,8 C 6,7 C 3,9 C 94 % 1006,3 hPa 0,0 l/m 0 min 2 min 16 W/m 16,1 km/h (3 Bft) 91,49 %
14.01.2023 11:54 7,8 C 6,7 C 3,9 C 94 % 1006,3 hPa 0,0 l/m 0 min 2 min 21 W/m 12,9 km/h (3 Bft) 93,48 %
14.01.2023 11:56 7,8 C 6,7 C 3,9 C 94 % 1006,2 hPa 0,0 l/m 0 min 2 min 21 W/m 16,1 km/h (3 Bft) 96,00 %
14.01.2023 11:58 7,8 C 6,7 C 3,9 C 95 % 1006,1 hPa 0,2 l/m 0 min 2 min 20 W/m 22,5 km/h (4 Bft) 97,87 %
14.01.2023 12:00 7,8 C 6,7 C 3,9 C 95 % 1006,1 hPa 0,2 l/m 0 min 2 min 20 W/m 16,1 km/h (3 Bft) 93,62 %
14.01.2023 12:02 7,8 C 6,7 C 3,9 C 95 % 1005,9 hPa 0,0 l/m 0 min 2 min 21 W/m 19,3 km/h (3 Bft) 93,62 %
14.01.2023 12:04 7,8 C 6,7 C 3,9 C 95 % 1005,8 hPa 0,0 l/m 0 min 2 min 23 W/m 19,3 km/h (3 Bft) 95,74 %
14.01.2023 12:07 7,8 C 6,7 C 3,9 C 95 % 1005,6 hPa 0,2 l/m 0 min 3 min 23 W/m 22,5 km/h (4 Bft) 95,83 %
14.01.2023 12:08 7,8 C 6,7 C 3,9 C 95 % 1005,6 hPa 0,0 l/m 0 min 1 min 25 W/m 16,1 km/h (3 Bft) 95,65 %
14.01.2023 12:10 7,8 C 6,7 C 3,9 C 95 % 1005,4 hPa 0,0 l/m 0 min 2 min 24 W/m 19,3 km/h (3 Bft) 97,87 %
14.01.2023 12:12 7,8 C 6,7 C 3,9 C 95 % 1005,5 hPa 0,2 l/m 0 min 2 min 23 W/m 19,3 km/h (3 Bft) 97,87 %
14.01.2023 12:14 7,8 C 6,7 C 3,9 C 95 % 1005,3 hPa 0,0 l/m 0 min 2 min 23 W/m 19,3 km/h (3 Bft) 95,74 %
14.01.2023 12:16 7,8 C 6,7 C 3,9 C 95 % 1005,2 hPa 0,0 l/m 0 min 2 min 23 W/m 12,9 km/h (3 Bft) 97,87 %
14.01.2023 12:18 7,8 C 6,7 C 3,9 C 95 % 1005,0 hPa 0,0 l/m 0 min 2 min 23 W/m 16,1 km/h (3 Bft) 95,74 %
14.01.2023 12:20 7,9 C 6,7 C 3,9 C 95 % 1005,0 hPa 0,2 l/m 0 min 2 min 24 W/m 19,3 km/h (3 Bft) 97,83 %
14.01.2023 12:22 7,9 C 7,2 C 3,9 C 95 % 1004,9 hPa 0,0 l/m 0 min 2 min 25 W/m 19,3 km/h (3 Bft) 97,87 %
14.01.2023 12:24 7,9 C 7,2 C 4,4 C 96 % 1005,0 hPa 0,2 l/m 0 min 2 min 25 W/m 22,5 km/h (4 Bft) 97,87 %
14.01.2023 12:26 8,0 C 7,2 C 4,4 C 96 % 1004,9 hPa 0,0 l/m 0 min 2 min 23 W/m 16,1 km/h (3 Bft) 97,14 %
14.01.2023 12:28 8,1 C 7,2 C 4,4 C 96 % 1004,9 hPa 0,0 l/m 0 min 2 min 24 W/m 22,5 km/h (4 Bft) 93,75 %
14.01.2023 12:30 8,1 C 7,2 C 4,4 C 96 % 1004,7 hPa 0,2 l/m 0 min 2 min 25 W/m 19,3 km/h (3 Bft) 97,87 %
14.01.2023 12:32 8,2 C 7,2 C 4,4 C 96 % 1004,6 hPa 0,0 l/m 0 min 2 min 26 W/m 29,0 km/h (5 Bft) 97,83 %
14.01.2023 12:34 8,2 C 7,2 C 4,4 C 96 % 1004,6 hPa 0,0 l/m 0 min 2 min 28 W/m 29,0 km/h (5 Bft) 95,74 %
14.01.2023 12:36 8,3 C 7,2 C 4,4 C 96 % 1004,5 hPa 0,0 l/m 0 min 2 min 27 W/m 25,7 km/h (4 Bft) 97,87 %
14.01.2023 12:38 8,3 C 7,2 C 4,4 C 96 % 1004,5 hPa 0,2 l/m 0 min 2 min 26 W/m 22,5 km/h (4 Bft) 97,87 %
14.01.2023 12:40 8,4 C 7,8 C 4,4 C 96 % 1004,4 hPa 0,0 l/m 0 min 2 min 25 W/m 22,5 km/h (4 Bft) 93,62 %
14.01.2023 12:42 8,4 C 7,8 C 4,4 C 96 % 1004,3 hPa 0,0 l/m 0 min 2 min 30 W/m 25,7 km/h (4 Bft) 95,74 %
14.01.2023 12:44 8,4 C 7,8 C 4,4 C 96 % 1004,2 hPa 0,0 l/m 0 min 2 min 28 W/m 19,3 km/h (3 Bft) 95,74 %
14.01.2023 12:46 8,5 C 7,8 C 4,4 C 96 % 1004,1 hPa 0,0 l/m 0 min 2 min 30 W/m 25,7 km/h (4 Bft) 93,48 %
14.01.2023 12:48 8,5 C 7,8 C 4,4 C 96 % 1004,2 hPa 0,0 l/m 0 min 2 min 26 W/m 25,7 km/h (4 Bft) 97,87 %
14.01.2023 12:50 8,6 C 7,8 C 4,4 C 96 % 1004,1 hPa 0,0 l/m 0 min 2 min 22 W/m 22,5 km/h (4 Bft) 97,87 %
14.01.2023 12:52 8,6 C 7,8 C 4,4 C 96 % 1004,2 hPa 0,0 l/m 0 min 2 min 23 W/m 29,0 km/h (5 Bft) 95,74 %
14.01.2023 12:54 8,6 C 7,8 C 4,4 C 96 % 1004,1 hPa 0,2 l/m 0 min 2 min 26 W/m 25,7 km/h (4 Bft) 97,87 %
14.01.2023 12:56 8,7 C 7,8 C 5,0 C 96 % 1004,1 hPa 0,0 l/m 0 min 2 min 27 W/m 25,7 km/h (4 Bft) 97,87 %
14.01.2023 12:58 8,7 C 7,8 C 5,0 C 96 % 1004,0 hPa 0,0 l/m 0 min 2 min 29 W/m 22,5 km/h (4 Bft) 97,83 %
14.01.2023 13:00 8,7 C 7,8 C 5,0 C 96 % 1004,0 hPa 0,0 l/m 0 min 2 min 28 W/m 29,0 km/h (5 Bft) 97,87 %
14.01.2023 13:02 8,7 C 7,8 C 5,0 C 96 % 1003,9 hPa 0,0 l/m 0 min 2 min 27 W/m 29,0 km/h (5 Bft) 97,87 %
14.01.2023 13:04 8,7 C 7,8 C 5,0 C 96 % 1003,9 hPa 0,2 l/m 0 min 2 min 20 W/m 22,5 km/h (4 Bft) 95,74 %
14.01.2023 13:06 8,8 C 7,8 C 5,0 C 96 % 1003,9 hPa 0,0 l/m 0 min 0 min 25 W/m 29,0 km/h (5 Bft) 97,87 %
14.01.2023 13:08 8,8 C 7,8 C 5,0 C 96 % 1003,8 hPa 0,0 l/m 0 min 0 min 28 W/m 25,7 km/h (4 Bft) 97,87 %
14.01.2023 13:10 8,8 C 7,8 C 5,0 C 96 % 1003,7 hPa 0,0 l/m 0 min 0 min 29 W/m 35,4 km/h (5 Bft) 97,87 %
14.01.2023 13:12 8,8 C 7,8 C 5,0 C 96 % 1003,7 hPa 0,0 l/m 0 min 2 min 27 W/m 45,1 km/h (6 Bft) 95,74 %
14.01.2023 13:14 8,8 C 7,8 C 5,0 C 96 % 1003,6 hPa 0,0 l/m 0 min 0 min 27 W/m 25,7 km/h (4 Bft) 97,83 %
14.01.2023 13:16 8,8 C 7,8 C 5,0 C 96 % 1003,6 hPa 0,0 l/m 0 min 2 min 27 W/m 25,7 km/h (4 Bft) 95,74 %
14.01.2023 13:18 8,9 C 7,8 C 5,0 C 96 % 1003,5 hPa 0,0 l/m 0 min 2 min 30 W/m 29,0 km/h (5 Bft) 97,87 %
14.01.2023 13:20 8,9 C 7,8 C 5,0 C 96 % 1003,5 hPa 0,0 l/m 0 min 2 min 28 W/m 29,0 km/h (5 Bft) 95,74 %
14.01.2023 13:22 8,9 C 7,8 C 5,0 C 96 % 1003,4 hPa 0,0 l/m 0 min 2 min 28 W/m 25,7 km/h (4 Bft) 97,87 %
14.01.2023 13:24 8,9 C 7,8 C 5,0 C 96 % 1003,4 hPa 0,0 l/m 0 min 2 min 27 W/m 25,7 km/h (4 Bft) 95,74 %
14.01.2023 13:26 8,9 C 7,8 C 5,0 C 96 % 1003,3 hPa 0,0 l/m 0 min 2 min 28 W/m 32,2 km/h (5 Bft) 100,00 %
14.01.2023 13:28 8,9 C 7,8 C 5,0 C 96 % 1003,2 hPa 0,0 l/m 0 min 2 min 27 W/m 32,2 km/h (5 Bft) 100,00 %
14.01.2023 13:30 9,0 C 7,8 C 5,0 C 96 % 1003,2 hPa 0,0 l/m 0 min 2 min 28 W/m 25,7 km/h (4 Bft) 97,87 %
14.01.2023 13:32 9,0 C 7,8 C 5,0 C 96 % 1003,2 hPa 0,0 l/m 0 min 2 min 29 W/m 35,4 km/h (5 Bft) 97,37 %
14.01.2023 13:34 9,0 C 7,8 C 5,0 C 96 % 1003,1 hPa 0,0 l/m 0 min 2 min 29 W/m 32,2 km/h (5 Bft) 95,83 %
14.01.2023 13:36 9,1 C 7,8 C 5,0 C 96 % 1003,0 hPa 0,0 l/m 0 min 2 min 31 W/m 19,3 km/h (3 Bft) 97,87 %
14.01.2023 13:38 9,1 C 7,8 C 5,0 C 96 % 1002,9 hPa 0,2 l/m 0 min 2 min 28 W/m 38,6 km/h (5 Bft) 97,87 %
14.01.2023 13:40 9,1 C 7,8 C 5,0 C 96 % 1002,9 hPa 0,0 l/m 0 min 2 min 23 W/m 32,2 km/h (5 Bft) 97,87 %
14.01.2023 13:42 9,1 C 7,8 C 5,0 C 96 % 1002,8 hPa 0,0 l/m 0 min 2 min 26 W/m 25,7 km/h (4 Bft) 95,65 %
14.01.2023 13:44 9,1 C 7,8 C 5,0 C 96 % 1002,8 hPa 0,0 l/m 0 min 2 min 24 W/m 25,7 km/h (4 Bft) 97,87 %
14.01.2023 13:46 9,1 C 7,8 C 5,0 C 96 % 1002,8 hPa 0,0 l/m 0 min 2 min 21 W/m 38,6 km/h (5 Bft) 97,87 %
14.01.2023 13:48 9,1 C 7,8 C 5,0 C 96 % 1002,8 hPa 0,0 l/m 0 min 2 min 20 W/m 35,4 km/h (5 Bft) 97,87 %
14.01.2023 13:50 9,1 C 7,8 C 5,0 C 96 % 1002,6 hPa 0,0 l/m 0 min 2 min 19 W/m 29,0 km/h (5 Bft) 97,87 %
14.01.2023 13:52 9,1 C 7,8 C 5,0 C 96 % 1002,6 hPa 0,0 l/m 0 min 2 min 23 W/m 38,6 km/h (5 Bft) 97,87 %
14.01.2023 13:54 9,1 C 7,8 C 5,0 C 95 % 1002,6 hPa 0,2 l/m 0 min 2 min 25 W/m 32,2 km/h (5 Bft) 97,87 %
14.01.2023 13:56 9,2 C 7,8 C 5,0 C 95 % 1002,5 hPa 0,0 l/m 0 min 2 min 27 W/m 32,2 km/h (5 Bft) 95,65 %
14.01.2023 13:58 9,2 C 7,8 C 5,0 C 96 % 1002,4 hPa 0,0 l/m 0 min 2 min 27 W/m 35,4 km/h (5 Bft) 97,87 %
14.01.2023 14:00 9,2 C 7,8 C 5,0 C 96 % 1002,4 hPa 0,0 l/m 0 min 2 min 25 W/m 22,5 km/h (4 Bft) 97,87 %
14.01.2023 14:02 9,2 C 7,8 C 5,0 C 96 % 1002,4 hPa 0,0 l/m 0 min 2 min 20 W/m 22,5 km/h (4 Bft) 97,87 %
14.01.2023 14:04 9,2 C 7,8 C 5,0 C 96 % 1002,4 hPa 0,0 l/m 0 min 2 min 18 W/m 41,8 km/h (6 Bft) 98,18 %
14.01.2023 14:06 9,2 C 7,8 C 5,0 C 95 % 1002,3 hPa 0,0 l/m 0 min 2 min 20 W/m 25,7 km/h (4 Bft) 100,00 %
14.01.2023 14:08 9,3 C 7,8 C 5,0 C 95 % 1002,2 hPa 0,0 l/m 0 min 2 min 20 W/m 19,3 km/h (3 Bft) 97,87 %
14.01.2023 14:10 9,3 C 8,3 C 5,0 C 95 % 1002,2 hPa 0,0 l/m 0 min 2 min 17 W/m 19,3 km/h (3 Bft) 97,87 %
14.01.2023 14:12 9,2 C 8,3 C 5,0 C 95 % 1002,2 hPa 0,0 l/m 0 min 2 min 16 W/m 19,3 km/h (3 Bft) 52,38 %
14.01.2023 14:14 9,3 C 8,3 C 5,0 C 95 % 1002,2 hPa 0,0 l/m 0 min 2 min 18 W/m 19,3 km/h (3 Bft) 100,00 %
14.01.2023 14:16 9,3 C 8,3 C 5,0 C 95 % 1002,0 hPa 0,0 l/m 0 min 2 min 18 W/m 22,5 km/h (4 Bft) 97,87 %
14.01.2023 14:18 9,3 C 8,3 C 5,0 C 95 % 1002,1 hPa 0,0 l/m 0 min 2 min 17 W/m 25,7 km/h (4 Bft) 100,00 %
14.01.2023 14:20 9,3 C 8,3 C 5,0 C 95 % 1002,0 hPa 0,0 l/m 0 min 2 min 14 W/m 22,5 km/h (4 Bft) 100,00 %
14.01.2023 14:22 9,3 C 8,3 C 5,0 C 95 % 1001,9 hPa 0,0 l/m 0 min 2 min 16 W/m 29,0 km/h (5 Bft) 97,87 %
14.01.2023 14:24 9,3 C 8,3 C 5,0 C 95 % 1001,9 hPa 0,0 l/m 0 min 2 min 16 W/m 19,3 km/h (3 Bft) 97,87 %
14.01.2023 14:26 9,3 C 8,3 C 5,6 C 95 % 1001,7 hPa 0,2 l/m 0 min 2 min 16 W/m 19,3 km/h (3 Bft) 100,00 %
14.01.2023 14:28 9,3 C 8,3 C 5,6 C 95 % 1001,7 hPa 0,0 l/m 0 min 2 min 18 W/m 16,1 km/h (3 Bft) 97,87 %
14.01.2023 14:30 9,3 C 8,3 C 5,6 C 95 % 1001,6 hPa 0,0 l/m 0 min 2 min 16 W/m 16,1 km/h (3 Bft) 95,74 %
14.01.2023 14:32 9,3 C 8,3 C 5,6 C 95 % 1001,6 hPa 0,0 l/m 0 min 2 min 17 W/m 25,7 km/h (4 Bft) 95,74 %
14.01.2023 14:34 9,3 C 8,3 C 5,6 C 95 % 1001,6 hPa 0,0 l/m 0 min 2 min 21 W/m 25,7 km/h (4 Bft) 97,87 %
14.01.2023 14:36 9,3 C 8,3 C 5,6 C 95 % 1001,5 hPa 0,0 l/m 0 min 2 min 23 W/m 25,7 km/h (4 Bft) 97,87 %
14.01.2023 14:38 9,3 C 8,3 C 5,6 C 95 % 1001,3 hPa 0,0 l/m 0 min 2 min 24 W/m 16,1 km/h (3 Bft) 95,74 %
14.01.2023 14:40 9,4 C 8,3 C 5,6 C 95 % 1001,3 hPa 0,0 l/m 0 min 2 min 21 W/m 25,7 km/h (4 Bft) 97,83 %
14.01.2023 14:42 9,4 C 8,3 C 5,6 C 95 % 1001,3 hPa 0,0 l/m 0 min 2 min 31 W/m 19,3 km/h (3 Bft) 97,87 %
14.01.2023 14:44 9,4 C 8,3 C 5,6 C 95 % 1001,2 hPa 0,2 l/m 0 min 0 min 22 W/m 25,7 km/h (4 Bft) 97,87 %
14.01.2023 14:46 9,4 C 8,3 C 5,6 C 95 % 1001,4 hPa 0,0 l/m 0 min 2 min 22 W/m 29,0 km/h (5 Bft) 97,87 %
14.01.2023 14:48 9,5 C 8,3 C 5,6 C 96 % 1001,2 hPa 0,0 l/m 0 min 2 min 21 W/m 32,2 km/h (5 Bft) 97,87 %
14.01.2023 14:50 9,6 C 8,3 C 5,6 C 96 % 1001,2 hPa 0,0 l/m 0 min 2 min 14 W/m 25,7 km/h (4 Bft) 97,87 %
14.01.2023 14:52 9,6 C 8,3 C 5,6 C 95 % 1001,2 hPa 0,0 l/m 0 min 2 min 17 W/m 35,4 km/h (5 Bft) 97,87 %
14.01.2023 14:54 9,6 C 8,3 C 5,6 C 95 % 1001,0 hPa 0,0 l/m 0 min 2 min 16 W/m 19,3 km/h (3 Bft) 97,83 %
14.01.2023 14:56 9,6 C 8,3 C 5,6 C 95 % 1001,1 hPa 0,0 l/m 0 min 2 min 19 W/m 22,5 km/h (4 Bft) 97,87 %
14.01.2023 14:58 9,6 C 8,3 C 5,6 C 95 % 1000,9 hPa 0,0 l/m 0 min 2 min 18 W/m 29,0 km/h (5 Bft) 97,22 %
14.01.2023 15:00 9,7 C 8,3 C 5,6 C 95 % 1001,0 hPa 0,0 l/m 0 min 2 min 14 W/m 19,3 km/h (3 Bft) 98,28 %
14.01.2023 15:02 9,7 C 8,3 C 5,6 C 95 % 1001,0 hPa 0,0 l/m 0 min 2 min 16 W/m 29,0 km/h (5 Bft) 100,00 %
14.01.2023 15:04 9,7 C 8,3 C 5,6 C 95 % 1000,9 hPa 0,0 l/m 0 min 2 min 13 W/m 32,2 km/h (5 Bft) 97,87 %
14.01.2023 15:06 9,7 C 8,3 C 5,6 C 95 % 1000,8 hPa 0,2 l/m 0 min 2 min 15 W/m 32,2 km/h (5 Bft) 96,61 %
14.01.2023 15:08 9,7 C 8,3 C 5,6 C 95 % 1000,9 hPa 0,0 l/m 0 min 2 min 12 W/m 41,8 km/h (6 Bft) 97,83 %
14.01.2023 15:10 9,8 C 8,3 C 5,6 C 95 % 1000,9 hPa 0,0 l/m 0 min 2 min 13 W/m 29,0 km/h (5 Bft) 97,22 %
14.01.2023 15:12 9,8 C 8,3 C 5,6 C 95 % 1000,8 hPa 0,2 l/m 0 min 2 min 14 W/m 35,4 km/h (5 Bft) 95,74 %
14.01.2023 15:14 9,8 C 8,3 C 5,6 C 95 % 1000,7 hPa 0,0 l/m 0 min 2 min 13 W/m 22,5 km/h (4 Bft) 97,83 %
14.01.2023 15:16 9,8 C 8,3 C 5,6 C 95 % 1000,7 hPa 0,0 l/m 0 min 2 min 14 W/m 35,4 km/h (5 Bft) 96,00 %
14.01.2023 15:18 9,9 C 8,3 C 5,6 C 95 % 1000,6 hPa 0,0 l/m 0 min 2 min 17 W/m 29,0 km/h (5 Bft) 97,83 %
14.01.2023 15:20 9,9 C 8,3 C 5,6 C 95 % 1000,5 hPa 0,0 l/m 0 min 2 min 13 W/m 38,6 km/h (5 Bft) 97,87 %
14.01.2023 15:22 9,9 C 8,3 C 5,6 C 95 % 1000,6 hPa 0,0 l/m 0 min 2 min 17 W/m 35,4 km/h (5 Bft) 100,00 %
14.01.2023 15:24 9,9 C 8,3 C 5,6 C 95 % 1000,6 hPa 0,2 l/m 0 min 2 min 19 W/m 35,4 km/h (5 Bft) 97,37 %
14.01.2023 15:26 9,9 C 8,3 C 5,6 C 95 % 1000,6 hPa 0,0 l/m 0 min 2 min 16 W/m 29,0 km/h (5 Bft) 97,87 %
14.01.2023 15:28 9,9 C 8,9 C 5,6 C 95 % 1000,5 hPa 0,0 l/m 0 min 2 min 17 W/m 38,6 km/h (5 Bft) 97,87 %
14.01.2023 15:30 9,9 C 8,9 C 5,6 C 95 % 1000,3 hPa 0,0 l/m 0 min 2 min 20 W/m 22,5 km/h (4 Bft) 95,74 %
14.01.2023 15:32 10,0 C 8,9 C 5,6 C 95 % 1000,3 hPa 0,0 l/m 0 min 2 min 25 W/m 29,0 km/h (5 Bft) 95,65 %
14.01.2023 15:34 10,0 C 8,9 C 5,6 C 94 % 1000,2 hPa 0,0 l/m 0 min 2 min 24 W/m 29,0 km/h (5 Bft) 95,74 %
14.01.2023 15:36 10,0 C 8,9 C 6,1 C 94 % 1000,3 hPa 0,0 l/m 0 min 2 min 25 W/m 48,3 km/h (6 Bft) 93,62 %
14.01.2023 15:38 10,0 C 8,9 C 6,1 C 94 % 1000,2 hPa 0,0 l/m 0 min 2 min 20 W/m 32,2 km/h (5 Bft) 93,62 %
14.01.2023 15:40 10,1 C 8,9 C 6,1 C 94 % 1000,2 hPa 0,0 l/m 0 min 2 min 23 W/m 35,4 km/h (5 Bft) 97,87 %
14.01.2023 15:42 10,1 C 8,9 C 6,1 C 95 % 1000,1 hPa 0,0 l/m 0 min 2 min 21 W/m 45,1 km/h (6 Bft) 93,62 %
14.01.2023 15:44 10,1 C 8,9 C 6,1 C 95 % 1000,1 hPa 0,0 l/m 0 min 2 min 23 W/m 32,2 km/h (5 Bft) 95,74 %
14.01.2023 15:46 10,1 C 8,9 C 6,1 C 94 % 1000,1 hPa 0,0 l/m 0 min 2 min 23 W/m 38,6 km/h (5 Bft) 95,65 %
14.01.2023 15:48 10,1 C 8,9 C 6,1 C 94 % 1000,0 hPa 0,0 l/m 0 min 2 min 20 W/m 51,5 km/h (7 Bft) 95,74 %
14.01.2023 15:50 10,2 C 8,9 C 6,1 C 94 % 999,9 hPa 0,0 l/m 0 min 2 min 18 W/m 48,3 km/h (6 Bft) 95,74 %
14.01.2023 15:52 10,2 C 8,9 C 6,1 C 94 % 1000,0 hPa 0,0 l/m 0 min 2 min 17 W/m 35,4 km/h (5 Bft) 95,74 %
14.01.2023 15:54 10,3 C 8,9 C 6,1 C 94 % 999,9 hPa 0,0 l/m 0 min 2 min 18 W/m 35,4 km/h (5 Bft) 95,74 %
14.01.2023 15:56 10,3 C 8,9 C 6,1 C 94 % 999,9 hPa 0,0 l/m 0 min 0 min 14 W/m 41,8 km/h (6 Bft) 91,49 %
14.01.2023 15:58 10,3 C 9,4 C 6,1 C 94 % 999,8 hPa 0,0 l/m 0 min 0 min 14 W/m 41,8 km/h (6 Bft) 95,74 %
14.01.2023 16:00 10,4 C 9,4 C 6,1 C 94 % 999,8 hPa 0,0 l/m 0 min 0 min 14 W/m 32,2 km/h (5 Bft) 93,48 %
14.01.2023 16:02 10,4 C 9,4 C 6,1 C 93 % 999,9 hPa 0,0 l/m 0 min 0 min 12 W/m 45,1 km/h (6 Bft) 95,74 %
14.01.2023 16:04 10,4 C 9,4 C 6,1 C 93 % 999,7 hPa 0,0 l/m 0 min 0 min 15 W/m 54,7 km/h (7 Bft) 97,87 %
14.01.2023 16:06 10,5 C 9,4 C 6,1 C 93 % 999,7 hPa 0,0 l/m 0 min 0 min 12 W/m 45,1 km/h (6 Bft) 97,87 %
14.01.2023 16:08 10,5 C 9,4 C 6,1 C 93 % 999,7 hPa 0,0 l/m 0 min 0 min 14 W/m 41,8 km/h (6 Bft) 97,87 %
14.01.2023 16:10 10,5 C 9,4 C 6,1 C 93 % 999,5 hPa 0,0 l/m 0 min 0 min 13 W/m 51,5 km/h (7 Bft) 97,87 %
14.01.2023 16:12 10,6 C 9,4 C 6,1 C 93 % 999,6 hPa 0,0 l/m 0 min 0 min 8 W/m 61,2 km/h (7 Bft) 97,87 %
14.01.2023 16:14 10,6 C 9,4 C 6,1 C 93 % 999,6 hPa 0,0 l/m 0 min 0 min 9 W/m 51,5 km/h (7 Bft) 95,65 %
14.01.2023 16:16 10,6 C 9,4 C 6,1 C 92 % 999,4 hPa 0,0 l/m 0 min 0 min 7 W/m 51,5 km/h (7 Bft) 97,87 %
14.01.2023 16:18 10,6 C 9,4 C 6,1 C 92 % 999,5 hPa 0,0 l/m 0 min 0 min 5 W/m 35,4 km/h (5 Bft) 97,87 %
14.01.2023 16:20 10,6 C 9,4 C 6,1 C 92 % 999,6 hPa 0,0 l/m 0 min 0 min 5 W/m 41,8 km/h (6 Bft) 97,87 %
14.01.2023 16:22 10,6 C 9,4 C 6,1 C 92 % 999,6 hPa 0,0 l/m 0 min 0 min 5 W/m 57,9 km/h (7 Bft) 97,87 %
14.01.2023 16:24 10,7 C 9,4 C 6,1 C 92 % 999,5 hPa 0,0 l/m 0 min 0 min 5 W/m 41,8 km/h (6 Bft) 97,87 %
14.01.2023 16:26 10,7 C 10,0 C 6,1 C 92 % 999,5 hPa 0,0 l/m 0 min 0 min 2 W/m 51,5 km/h (7 Bft) 97,87 %
14.01.2023 16:28 10,8 C 10,0 C 6,1 C 91 % 999,4 hPa 0,0 l/m 0 min 2 min 0 W/m 35,4 km/h (5 Bft) 100,00 %
14.01.2023 16:30 10,9 C 10,0 C 6,1 C 91 % 999,3 hPa 0,0 l/m 0 min 0 min 2 W/m 54,7 km/h (7 Bft) 100,00 %
14.01.2023 16:32 11,0 C 10,0 C 6,1 C 91 % 999,4 hPa 0,0 l/m 0 min 0 min 0 W/m 38,6 km/h (5 Bft) 97,87 %
14.01.2023 16:34 11,1 C 10,0 C 6,1 C 90 % 999,4 hPa 0,0 l/m 0 min 2 min 0 W/m 57,9 km/h (7 Bft) 100,00 %
14.01.2023 16:36 11,1 C 10,0 C 6,1 C 90 % 999,6 hPa 0,0 l/m 0 min 2 min 0 W/m 41,8 km/h (6 Bft) 97,87 %
14.01.2023 16:38 11,1 C 10,0 C 6,1 C 90 % 999,4 hPa 0,0 l/m 0 min 2 min 0 W/m 38,6 km/h (5 Bft) 100,00 %
14.01.2023 16:40 11,2 C 10,0 C 6,1 C 90 % 999,3 hPa 0,0 l/m 0 min 2 min 0 W/m 41,8 km/h (6 Bft) 100,00 %
14.01.2023 16:42 11,2 C 10,0 C 6,1 C 90 % 999,2 hPa 0,0 l/m 0 min 2 min 0 W/m 48,3 km/h (6 Bft) 97,83 %
14.01.2023 16:44 11,2 C 10,0 C 6,1 C 89 % 999,3 hPa 0,0 l/m 0 min 2 min 0 W/m 41,8 km/h (6 Bft) 100,00 %
14.01.2023 16:46 11,2 C 10,0 C 6,1 C 89 % 999,4 hPa 0,0 l/m 0 min 2 min 0 W/m 54,7 km/h (7 Bft) 100,00 %
14.01.2023 16:48 11,2 C 10,6 C 6,1 C 89 % 999,1 hPa 0,0 l/m 0 min 0 min 0 W/m 61,2 km/h (7 Bft) 100,00 %
14.01.2023 16:50 11,2 C 10,6 C 6,1 C 89 % 999,1 hPa 0,0 l/m 0 min 0 min 0 W/m 48,3 km/h (6 Bft) 95,74 %
14.01.2023 16:52 11,3 C 10,6 C 6,1 C 89 % 999,1 hPa 0,0 l/m 0 min 0 min 0 W/m 48,3 km/h (6 Bft) 100,00 %
14.01.2023 16:54 11,4 C 10,6 C 6,1 C 88 % 999,1 hPa 0,0 l/m 0 min 0 min 0 W/m 54,7 km/h (7 Bft) 100,00 %
14.01.2023 16:56 11,4 C 10,6 C 6,1 C 88 % 999,2 hPa 0,0 l/m 0 min 0 min 0 W/m 41,8 km/h (6 Bft) 100,00 %
14.01.2023 16:58 11,4 C 10,6 C 6,1 C 88 % 999,1 hPa 0,0 l/m 0 min 0 min 0 W/m 29,0 km/h (5 Bft) 97,83 %
14.01.2023 17:00 11,4 C 10,6 C 6,1 C 88 % 999,3 hPa 0,0 l/m 0 min 0 min 0 W/m 35,4 km/h (5 Bft) 97,87 %
14.01.2023 17:02 11,4 C 10,6 C 6,1 C 88 % 999,1 hPa 0,0 l/m 0 min 0 min 0 W/m 35,4 km/h (5 Bft) 97,87 %
14.01.2023 17:04 11,4 C 10,6 C 6,1 C 88 % 999,0 hPa 0,0 l/m 0 min 0 min 0 W/m 54,7 km/h (7 Bft) 97,87 %
14.01.2023 17:06 11,4 C 10,6 C 6,1 C 88 % 999,0 hPa 0,0 l/m 0 min 0 min 0 W/m 35,4 km/h (5 Bft) 97,87 %
14.01.2023 17:08 11,5 C 10,6 C 6,1 C 88 % 998,9 hPa 0,0 l/m 0 min 0 min 0 W/m 54,7 km/h (7 Bft) 97,87 %
14.01.2023 17:10 11,6 C 10,6 C 6,1 C 88 % 998,9 hPa 0,0 l/m 0 min 0 min 0 W/m 57,9 km/h (7 Bft) 93,62 %
14.01.2023 17:12 11,6 C 10,6 C 6,1 C 87 % 998,8 hPa 0,0 l/m 0 min 0 min 0 W/m 57,9 km/h (7 Bft) 97,83 %
14.01.2023 17:14 11,6 C 10,6 C 6,1 C 87 % 998,8 hPa 0,0 l/m 0 min 0 min 0 W/m 45,1 km/h (6 Bft) 95,74 %
14.01.2023 17:16 11,7 C 10,6 C 6,1 C 87 % 998,8 hPa 0,0 l/m 0 min 0 min 0 W/m 41,8 km/h (6 Bft) 97,87 %
14.01.2023 17:18 11,7 C 10,6 C 6,1 C 87 % 998,9 hPa 0,0 l/m 0 min 0 min 0 W/m 35,4 km/h (5 Bft) 97,87 %
14.01.2023 17:20 11,7 C 10,6 C 6,1 C 87 % 998,7 hPa 0,0 l/m 0 min 0 min 0 W/m 57,9 km/h (7 Bft) 93,62 %
14.01.2023 17:22 11,7 C 10,6 C 6,1 C 87 % 998,8 hPa 0,0 l/m 0 min 0 min 0 W/m 32,2 km/h (5 Bft) 95,74 %
14.01.2023 17:24 11,7 C 10,6 C 6,1 C 87 % 998,8 hPa 0,0 l/m 0 min 0 min 0 W/m 29,0 km/h (5 Bft) 95,74 %
14.01.2023 17:26 11,7 C 10,6 C 6,1 C 87 % 998,7 hPa 0,0 l/m 0 min 0 min 0 W/m 45,1 km/h (6 Bft) 95,65 %
14.01.2023 17:28 11,7 C 11,1 C 6,1 C 87 % 998,7 hPa 0,0 l/m 0 min 0 min 0 W/m 45,1 km/h (6 Bft) 95,74 %
14.01.2023 17:30 11,7 C 10,6 C 6,1 C 87 % 998,7 hPa 0,0 l/m 0 min 0 min 0 W/m 35,4 km/h (5 Bft) 95,74 %
14.01.2023 17:32 11,7 C 10,6 C 6,7 C 87 % 998,8 hPa 0,0 l/m 0 min 0 min 0 W/m 32,2 km/h (5 Bft) 93,62 %
14.01.2023 17:34 11,7 C 11,1 C 6,7 C 87 % 998,6 hPa 0,0 l/m 0 min 0 min 0 W/m 48,3 km/h (6 Bft) 93,62 %
14.01.2023 17:36 11,7 C 11,1 C 6,7 C 87 % 998,6 hPa 0,0 l/m 0 min 0 min 0 W/m 41,8 km/h (6 Bft) 89,36 %
14.01.2023 17:38 11,7 C 11,1 C 6,7 C 87 % 998,8 hPa 0,0 l/m 0 min 0 min 0 W/m 51,5 km/h (7 Bft) 95,65 %
14.01.2023 17:40 11,8 C 11,1 C 6,7 C 87 % 998,7 hPa 0,0 l/m 0 min 0 min 0 W/m 41,8 km/h (6 Bft) 95,74 %
14.01.2023 17:42 11,8 C 11,1 C 6,7 C 87 % 998,6 hPa 0,0 l/m 0 min 0 min 0 W/m 41,8 km/h (6 Bft) 95,74 %
14.01.2023 17:44 11,8 C 11,1 C 6,7 C 87 % 998,5 hPa 0,0 l/m 0 min 0 min 0 W/m 54,7 km/h (7 Bft) 93,62 %
14.01.2023 17:46 11,8 C 11,1 C 6,7 C 87 % 998,5 hPa 0,0 l/m 0 min 0 min 0 W/m 45,1 km/h (6 Bft) 97,87 %
14.01.2023 17:48 11,8 C 11,1 C 7,2 C 87 % 998,5 hPa 0,0 l/m 0 min 0 min 0 W/m 45,1 km/h (6 Bft) 97,87 %
14.01.2023 17:50 11,8 C 11,1 C 7,2 C 87 % 998,5 hPa 0,0 l/m 0 min 0 min 0 W/m 38,6 km/h (5 Bft) 95,74 %
14.01.2023 17:52 11,8 C 11,1 C 7,2 C 87 % 998,5 hPa 0,0 l/m 0 min 0 min 0 W/m 32,2 km/h (5 Bft) 100,00 %
14.01.2023 17:54 11,7 C 10,6 C 7,2 C 87 % 998,5 hPa 0,0 l/m 0 min 0 min 0 W/m 35,4 km/h (5 Bft) 100,00 %
14.01.2023 17:56 11,7 C 11,1 C 7,2 C 87 % 998,4 hPa 0,0 l/m 0 min 0 min 0 W/m 32,2 km/h (5 Bft) 100,00 %
14.01.2023 17:58 11,7 C 11,1 C 7,2 C 87 % 998,6 hPa 0,0 l/m 0 min 0 min 0 W/m 64,4 km/h (8 Bft) 100,00 %
14.01.2023 18:00 11,7 C 11,1 C 7,2 C 87 % 998,5 hPa 0,0 l/m 0 min 0 min 0 W/m 45,1 km/h (6 Bft) 100,00 %
14.01.2023 18:02 11,8 C 11,1 C 7,2 C 87 % 998,5 hPa 0,0 l/m 0 min 0 min 0 W/m 41,8 km/h (6 Bft) 100,00 %
14.01.2023 18:04 11,8 C 11,1 C 7,2 C 87 % 998,6 hPa 0,0 l/m 0 min 0 min 0 W/m 41,8 km/h (6 Bft) 100,00 %
14.01.2023 18:07 11,8 C 11,1 C 7,8 C 87 % 998,3 hPa 0,0 l/m 0 min 0 min 0 W/m 35,4 km/h (5 Bft) 97,40 %
14.01.2023 18:08 11,8 C 11,1 C 7,8 C 87 % 998,3 hPa 0,0 l/m 0 min 0 min 0 W/m 38,6 km/h (5 Bft) 100,00 %
14.01.2023 18:10 11,8 C 11,1 C 7,8 C 87 % 998,4 hPa 0,0 l/m 0 min 0 min 0 W/m 35,4 km/h (5 Bft) 97,87 %
14.01.2023 18:12 11,8 C 11,1 C 7,8 C 87 % 998,5 hPa 0,0 l/m 0 min 0 min 0 W/m 51,5 km/h (7 Bft) 100,00 %
14.01.2023 18:14 11,8 C 11,1 C 7,8 C 87 % 998,5 hPa 0,0 l/m 0 min 0 min 0 W/m 35,4 km/h (5 Bft) 100,00 %
14.01.2023 18:16 11,9 C 11,1 C 7,8 C 87 % 998,5 hPa 0,0 l/m 0 min 0 min 0 W/m 57,9 km/h (7 Bft) 100,00 %
14.01.2023 18:18 11,9 C 11,1 C 7,8 C 87 % 998,5 hPa 0,0 l/m 0 min 0 min 0 W/m 48,3 km/h (6 Bft) 100,00 %
14.01.2023 18:20 11,9 C 11,1 C 7,8 C 87 % 998,5 hPa 0,0 l/m 0 min 0 min 0 W/m 38,6 km/h (5 Bft) 100,00 %
14.01.2023 18:22 11,9 C 11,1 C 7,8 C 87 % 998,4 hPa 0,0 l/m 0 min 0 min 0 W/m 38,6 km/h (5 Bft) 97,87 %
14.01.2023 18:24 11,9 C 11,1 C 7,8 C 87 % 998,4 hPa 0,0 l/m 0 min 0 min 0 W/m 41,8 km/h (6 Bft) 100,00 %
14.01.2023 18:26 11,9 C 11,1 C 7,8 C 87 % 998,6 hPa 0,0 l/m 0 min 0 min 0 W/m 51,5 km/h (7 Bft) 100,00 %
14.01.2023 18:28 11,9 C 11,1 C 7,8 C 87 % 998,5 hPa 0,0 l/m 0 min 0 min 0 W/m 38,6 km/h (5 Bft) 100,00 %
14.01.2023 18:30 11,9 C 11,1 C 7,8 C 87 % 998,4 hPa 0,0 l/m 0 min 0 min 0 W/m 45,1 km/h (6 Bft) 100,00 %
14.01.2023 18:32 11,9 C 11,1 C 7,8 C 87 % 998,5 hPa 0,0 l/m 0 min 0 min 0 W/m 32,2 km/h (5 Bft) 100,00 %
14.01.2023 18:34 11,9 C 11,1 C 7,8 C 87 % 998,4 hPa 0,0 l/m 0 min 0 min 0 W/m 45,1 km/h (6 Bft) 95,74 %
14.01.2023 18:36 11,9 C 11,1 C 7,8 C 87 % 998,3 hPa 0,0 l/m 0 min 0 min 0 W/m 41,8 km/h (6 Bft) 97,87 %
14.01.2023 18:38 11,9 C 11,1 C 7,8 C 87 % 998,4 hPa 0,0 l/m 0 min 0 min 0 W/m 38,6 km/h (5 Bft) 97,87 %
14.01.2023 18:40 11,9 C 11,1 C 7,8 C 87 % 998,2 hPa 0,0 l/m 0 min 0 min 0 W/m 45,1 km/h (6 Bft) 95,74 %
14.01.2023 18:42 11,9 C 11,1 C 7,8 C 87 % 998,5 hPa 0,0 l/m 0 min 0 min 0 W/m 54,7 km/h (7 Bft) 95,74 %
14.01.2023 18:44 11,9 C 11,1 C 7,8 C 87 % 998,3 hPa 0,0 l/m 0 min 0 min 0 W/m 41,8 km/h (6 Bft) 97,83 %
14.01.2023 18:46 11,9 C 11,1 C 7,8 C 87 % 998,3 hPa 0,0 l/m 0 min 0 min 0 W/m 61,2 km/h (7 Bft) 97,87 %
14.01.2023 18:48 11,9 C 11,1 C 7,8 C 87 % 998,2 hPa 0,0 l/m 0 min 0 min 0 W/m 35,4 km/h (5 Bft) 95,74 %
14.01.2023 18:50 11,9 C 11,1 C 7,8 C 88 % 998,2 hPa 0,0 l/m 0 min 0 min 0 W/m 48,3 km/h (6 Bft) 95,74 %
14.01.2023 18:52 11,9 C 11,1 C 7,8 C 88 % 998,2 hPa 0,0 l/m 0 min 0 min 0 W/m 41,8 km/h (6 Bft) 97,87 %
14.01.2023 18:54 11,9 C 11,1 C 7,8 C 88 % 998,3 hPa 0,0 l/m 0 min 0 min 0 W/m 54,7 km/h (7 Bft) 97,87 %
14.01.2023 18:56 11,9 C 11,1 C 7,8 C 88 % 998,2 hPa 0,0 l/m 0 min 0 min 0 W/m 32,2 km/h (5 Bft) 97,87 %
14.01.2023 18:58 11,9 C 11,1 C 7,8 C 88 % 998,2 hPa 0,0 l/m 0 min 0 min 0 W/m 48,3 km/h (6 Bft) 97,83 %
14.01.2023 19:00 11,9 C 11,1 C 7,8 C 88 % 998,1 hPa 0,0 l/m 0 min 0 min 0 W/m 45,1 km/h (6 Bft) 97,87 %
14.01.2023 19:02 11,9 C 11,1 C 7,8 C 88 % 998,2 hPa 0,0 l/m 0 min 0 min 0 W/m 32,2 km/h (5 Bft) 97,87 %
14.01.2023 19:04 11,9 C 11,1 C 7,8 C 88 % 998,2 hPa 0,0 l/m 0 min 0 min 0 W/m 57,9 km/h (7 Bft) 97,87 %
14.01.2023 19:06 11,9 C 11,1 C 7,8 C 88 % 998,2 hPa 0,0 l/m 0 min 0 min 0 W/m 41,8 km/h (6 Bft) 96,61 %
14.01.2023 19:08 11,9 C 11,1 C 7,8 C 88 % 998,3 hPa 0,0 l/m 0 min 0 min 0 W/m 29,0 km/h (5 Bft) 97,14 %
14.01.2023 19:10 11,9 C 11,1 C 7,8 C 88 % 998,3 hPa 0,0 l/m 0 min 0 min 0 W/m 32,2 km/h (5 Bft) 97,87 %
14.01.2023 19:12 11,9 C 11,1 C 7,8 C 88 % 998,3 hPa 0,0 l/m 0 min 0 min 0 W/m 45,1 km/h (6 Bft) 97,83 %
14.01.2023 19:14 11,9 C 11,1 C 7,8 C 88 % 998,4 hPa 0,0 l/m 0 min 0 min 0 W/m 35,4 km/h (5 Bft) 93,62 %
14.01.2023 19:16 11,9 C 11,1 C 7,8 C 88 % 998,2 hPa 0,0 l/m 0 min 0 min 0 W/m 35,4 km/h (5 Bft) 97,87 %
14.01.2023 19:18 11,9 C 11,1 C 7,8 C 88 % 998,3 hPa 0,0 l/m 0 min 0 min 0 W/m 41,8 km/h (6 Bft) 97,87 %
14.01.2023 19:20 11,9 C 11,1 C 7,8 C 88 % 998,2 hPa 0,0 l/m 0 min 0 min 0 W/m 45,1 km/h (6 Bft) 95,74 %
14.01.2023 19:22 11,9 C 11,1 C 7,8 C 88 % 998,2 hPa 0,0 l/m 0 min 0 min 0 W/m 35,4 km/h (5 Bft) 97,87 %
14.01.2023 19:24 11,9 C 11,1 C 7,8 C 88 % 998,2 hPa 0,0 l/m 0 min 0 min 0 W/m 19,3 km/h (3 Bft) 95,74 %
14.01.2023 19:26 11,9 C 11,1 C 7,8 C 88 % 998,3 hPa 0,0 l/m 0 min 0 min 0 W/m 48,3 km/h (6 Bft) 93,48 %
14.01.2023 19:28 11,9 C 11,1 C 7,8 C 88 % 998,1 hPa 0,0 l/m 0 min 0 min 0 W/m 41,8 km/h (6 Bft) 98,00 %
14.01.2023 19:30 11,9 C 11,1 C 7,8 C 88 % 998,2 hPa 0,0 l/m 0 min 0 min 0 W/m 32,2 km/h (5 Bft) 97,87 %
14.01.2023 19:32 12,0 C 11,1 C 7,8 C 88 % 998,1 hPa 0,0 l/m 0 min 0 min 0 W/m 41,8 km/h (6 Bft) 95,74 %
14.01.2023 19:34 12,0 C 11,1 C 7,8 C 88 % 998,2 hPa 0,0 l/m 0 min 0 min 0 W/m 35,4 km/h (5 Bft) 95,74 %
14.01.2023 19:36 12,0 C 11,1 C 7,8 C 88 % 998,2 hPa 0,0 l/m 0 min 0 min 0 W/m 25,7 km/h (4 Bft) 97,87 %
14.01.2023 19:38 12,1 C 11,1 C 7,8 C 88 % 998,2 hPa 0,0 l/m 0 min 0 min 0 W/m 54,7 km/h (7 Bft) 95,74 %
14.01.2023 19:40 12,1 C 11,1 C 7,8 C 88 % 998,2 hPa 0,0 l/m 0 min 0 min 0 W/m 32,2 km/h (5 Bft) 91,30 %
14.01.2023 19:42 12,1 C 11,1 C 7,8 C 88 % 998,1 hPa 0,0 l/m 0 min 0 min 0 W/m 51,5 km/h (7 Bft) 95,74 %
14.01.2023 19:44 12,1 C 11,1 C 7,8 C 89 % 998,1 hPa 0,0 l/m 0 min 0 min 0 W/m 48,3 km/h (6 Bft) 95,74 %
14.01.2023 19:46 12,1 C 11,1 C 7,8 C 89 % 998,1 hPa 0,0 l/m 0 min 0 min 0 W/m 41,8 km/h (6 Bft) 93,62 %
14.01.2023 19:48 12,1 C 11,1 C 7,8 C 89 % 998,2 hPa 0,0 l/m 0 min 0 min 0 W/m 54,7 km/h (7 Bft) 93,62 %
14.01.2023 19:50 12,1 C 11,1 C 7,8 C 89 % 998,2 hPa 0,0 l/m 0 min 0 min 0 W/m 48,3 km/h (6 Bft) 91,49 %
14.01.2023 19:52 12,1 C 11,1 C 7,8 C 89 % 998,2 hPa 0,0 l/m 0 min 2 min 0 W/m 57,9 km/h (7 Bft) 93,62 %
14.01.2023 19:54 12,0 C 11,1 C 7,8 C 89 % 998,1 hPa 0,0 l/m 0 min 2 min 0 W/m 51,5 km/h (7 Bft) 97,83 %
14.01.2023 19:56 12,0 C 11,1 C 7,8 C 90 % 998,2 hPa 0,0 l/m 0 min 2 min 0 W/m 41,8 km/h (6 Bft) 95,74 %
14.01.2023 19:58 11,9 C 11,1 C 7,8 C 90 % 998,3 hPa 0,0 l/m 0 min 2 min 0 W/m 57,9 km/h (7 Bft) 95,74 %
14.01.2023 20:00 11,9 C 10,6 C 7,8 C 90 % 998,1 hPa 0,0 l/m 0 min 2 min 0 W/m 41,8 km/h (6 Bft) 97,87 %
14.01.2023 20:02 11,8 C 10,6 C 7,2 C 90 % 998,1 hPa 0,0 l/m 0 min 2 min 0 W/m 29,0 km/h (5 Bft) 95,74 %
14.01.2023 20:04 11,8 C 10,6 C 7,2 C 91 % 998,1 hPa 0,0 l/m 0 min 2 min 0 W/m 38,6 km/h (5 Bft) 95,74 %
14.01.2023 20:06 11,7 C 10,6 C 7,2 C 91 % 998,1 hPa 0,0 l/m 0 min 2 min 0 W/m 41,8 km/h (6 Bft) 97,87 %
14.01.2023 20:08 11,7 C 10,6 C 7,2 C 91 % 998,1 hPa 0,0 l/m 0 min 2 min 0 W/m 35,4 km/h (5 Bft) 97,83 %
14.01.2023 20:10 11,7 C 10,6 C 7,2 C 91 % 998,0 hPa 0,0 l/m 0 min 2 min 0 W/m 54,7 km/h (7 Bft) 95,74 %
14.01.2023 20:12 11,7 C 10,6 C 7,2 C 92 % 998,2 hPa 0,0 l/m 0 min 2 min 0 W/m 38,6 km/h (5 Bft) 93,62 %
14.01.2023 20:14 11,7 C 10,6 C 7,2 C 92 % 998,2 hPa 0,0 l/m 0 min 2 min 0 W/m 48,3 km/h (6 Bft) 97,87 %
14.01.2023 20:16 11,6 C 10,6 C 7,2 C 92 % 998,2 hPa 0,0 l/m 0 min 2 min 0 W/m 41,8 km/h (6 Bft) 97,87 %
14.01.2023 20:18 11,6 C 10,0 C 7,2 C 92 % 998,2 hPa 0,0 l/m 0 min 2 min 0 W/m 32,2 km/h (5 Bft) 95,74 %
14.01.2023 20:20 11,6 C 10,0 C 7,2 C 92 % 998,2 hPa 0,2 l/m 0 min 2 min 0 W/m 38,6 km/h (5 Bft) 97,87 %
14.01.2023 20:22 11,6 C 10,0 C 6,7 C 93 % 998,1 hPa 0,0 l/m 0 min 2 min 0 W/m 41,8 km/h (6 Bft) 97,83 %
14.01.2023 20:24 11,5 C 10,0 C 6,7 C 93 % 998,1 hPa 0,0 l/m 0 min 2 min 0 W/m 45,1 km/h (6 Bft) 100,00 %
14.01.2023 20:26 11,4 C 10,0 C 6,7 C 93 % 998,0 hPa 0,0 l/m 0 min 2 min 0 W/m 35,4 km/h (5 Bft) 97,87 %
14.01.2023 20:28 11,4 C 10,0 C 6,7 C 93 % 998,1 hPa 0,0 l/m 0 min 2 min 0 W/m 25,7 km/h (4 Bft) 100,00 %
14.01.2023 20:30 11,4 C 10,0 C 6,7 C 94 % 998,1 hPa 0,0 l/m 0 min 2 min 0 W/m 41,8 km/h (6 Bft) 100,00 %
14.01.2023 20:32 11,3 C 10,0 C 6,7 C 94 % 998,1 hPa 0,0 l/m 0 min 0 min 0 W/m 25,7 km/h (4 Bft) 100,00 %
14.01.2023 20:34 11,3 C 10,0 C 6,7 C 94 % 998,1 hPa 0,0 l/m 0 min 0 min 0 W/m 22,5 km/h (4 Bft) 97,87 %
14.01.2023 20:36 11,3 C 10,0 C 6,7 C 94 % 998,1 hPa 0,0 l/m 0 min 0 min 0 W/m 25,7 km/h (4 Bft) 100,00 %
14.01.2023 20:38 11,3 C 10,0 C 6,7 C 94 % 998,1 hPa 0,0 l/m 0 min 2 min 0 W/m 38,6 km/h (5 Bft) 100,00 %
14.01.2023 20:40 11,3 C 10,0 C 6,7 C 94 % 998,2 hPa 0,0 l/m 0 min 2 min 0 W/m 22,5 km/h (4 Bft) 97,87 %
14.01.2023 20:42 11,2 C 10,0 C 6,7 C 94 % 998,2 hPa 0,2 l/m 0 min 2 min 0 W/m 29,0 km/h (5 Bft) 100,00 %
14.01.2023 20:44 11,2 C 10,0 C 6,7 C 95 % 998,2 hPa 0,2 l/m 0 min 2 min 0 W/m 32,2 km/h (5 Bft) 100,00 %
14.01.2023 20:46 11,2 C 10,0 C 6,7 C 95 % 998,2 hPa 0,0 l/m 0 min 2 min 0 W/m 22,5 km/h (4 Bft) 100,00 %
14.01.2023 20:48 11,2 C 10,0 C 6,7 C 95 % 998,2 hPa 0,0 l/m 0 min 0 min 0 W/m 25,7 km/h (4 Bft) 97,87 %
14.01.2023 20:50 11,2 C 10,0 C 6,7 C 95 % 998,2 hPa 0,0 l/m 0 min 0 min 0 W/m 32,2 km/h (5 Bft) 100,00 %
14.01.2023 20:52 11,2 C 10,0 C 6,7 C 95 % 998,2 hPa 0,0 l/m 0 min 0 min 0 W/m 9,7 km/h (2 Bft) 100,00 %
14.01.2023 20:54 11,2 C 10,0 C 6,7 C 95 % 998,2 hPa 0,0 l/m 0 min 0 min 0 W/m 16,1 km/h (3 Bft) 100,00 %
14.01.2023 20:56 11,1 C 10,0 C 6,7 C 95 % 998,3 hPa 0,0 l/m 0 min 0 min 0 W/m 16,1 km/h (3 Bft) 100,00 %
14.01.2023 20:58 11,1 C 10,0 C 6,7 C 95 % 998,3 hPa 0,0 l/m 0 min 0 min 0 W/m 16,1 km/h (3 Bft) 97,92 %
14.01.2023 21:00 11,1 C 10,0 C 6,7 C 95 % 998,5 hPa 0,0 l/m 0 min 2 min 0 W/m 19,3 km/h (3 Bft) 100,00 %
14.01.2023 21:02 11,1 C 10,0 C 6,7 C 96 % 998,6 hPa 0,0 l/m 0 min 0 min 0 W/m 19,3 km/h (3 Bft) 95,74 %
14.01.2023 21:04 11,1 C 10,0 C 6,7 C 96 % 998,4 hPa 0,0 l/m 0 min 2 min 0 W/m 22,5 km/h (4 Bft) 97,87 %
14.01.2023 21:06 11,1 C 10,0 C 6,7 C 96 % 998,3 hPa 0,2 l/m 0 min 2 min 0 W/m 29,0 km/h (5 Bft) 95,74 %
14.01.2023 21:08 11,1 C 10,0 C 6,7 C 96 % 998,5 hPa 0,0 l/m 0 min 2 min 0 W/m 25,7 km/h (4 Bft) 100,00 %
14.01.2023 21:10 11,1 C 10,0 C 6,7 C 96 % 998,4 hPa 0,2 l/m 0 min 2 min 0 W/m 25,7 km/h (4 Bft) 100,00 %
14.01.2023 21:12 11,1 C 10,0 C 6,7 C 96 % 998,4 hPa 0,2 l/m 0 min 2 min 0 W/m 19,3 km/h (3 Bft) 100,00 %
14.01.2023 21:14 11,1 C 10,0 C 6,7 C 96 % 998,4 hPa 0,4 l/m 0 min 2 min 0 W/m 29,0 km/h (5 Bft) 100,00 %
14.01.2023 21:16 11,1 C 10,0 C 6,7 C 96 % 998,5 hPa 0,2 l/m 0 min 2 min 0 W/m 16,1 km/h (3 Bft) 97,87 %
14.01.2023 21:18 11,1 C 10,0 C 6,7 C 96 % 998,4 hPa 0,2 l/m 0 min 2 min 0 W/m 12,9 km/h (3 Bft) 100,00 %
14.01.2023 21:20 11,1 C 10,0 C 6,7 C 96 % 998,4 hPa 0,0 l/m 0 min 2 min 0 W/m 29,0 km/h (5 Bft) 97,87 %
14.01.2023 21:22 11,1 C 10,0 C 6,7 C 96 % 998,5 hPa 0,2 l/m 0 min 2 min 0 W/m 22,5 km/h (4 Bft) 97,87 %
14.01.2023 21:24 11,0 C 9,4 C 6,7 C 96 % 998,5 hPa 0,0 l/m 0 min 2 min 0 W/m 19,3 km/h (3 Bft) 87,23 %
14.01.2023 21:26 11,0 C 9,4 C 6,7 C 96 % 998,5 hPa 0,0 l/m 0 min 2 min 0 W/m 22,5 km/h (4 Bft) 78,26 %
14.01.2023 21:28 11,0 C 9,4 C 6,7 C 96 % 998,6 hPa 0,0 l/m 0 min 0 min 0 W/m 22,5 km/h (4 Bft) 82,98 %
14.01.2023 21:30 10,9 C 9,4 C 6,7 C 96 % 998,6 hPa 0,0 l/m 0 min 0 min 0 W/m 16,1 km/h (3 Bft) 85,11 %
14.01.2023 21:32 10,9 C 9,4 C 6,7 C 96 % 998,6 hPa 0,0 l/m 0 min 0 min 0 W/m 16,1 km/h (3 Bft) 82,98 %
14.01.2023 21:34 10,9 C 9,4 C 6,7 C 96 % 998,5 hPa 0,0 l/m 0 min 0 min 0 W/m 19,3 km/h (3 Bft) 63,83 %
14.01.2023 21:36 10,9 C 9,4 C 6,7 C 96 % 998,5 hPa 0,0 l/m 0 min 0 min 0 W/m 19,3 km/h (3 Bft) 68,09 %
14.01.2023 21:38 10,9 C 9,4 C 6,7 C 96 % 998,4 hPa 0,0 l/m 0 min 0 min 0 W/m 12,9 km/h (3 Bft) 67,39 %
14.01.2023 21:40 10,9 C 9,4 C 6,7 C 96 % 998,4 hPa 0,0 l/m 0 min 0 min 0 W/m 22,5 km/h (4 Bft) 72,34 %
14.01.2023 21:42 10,9 C 9,4 C 6,7 C 96 % 998,4 hPa 0,0 l/m 0 min 0 min 0 W/m 12,9 km/h (3 Bft) 91,49 %
14.01.2023 21:44 10,9 C 9,4 C 6,7 C 96 % 998,5 hPa 0,0 l/m 0 min 0 min 0 W/m 16,1 km/h (3 Bft) 93,62 %
14.01.2023 21:46 10,9 C 10,0 C 6,7 C 96 % 998,5 hPa 0,0 l/m 0 min 0 min 0 W/m 16,1 km/h (3 Bft) 80,85 %
14.01.2023 21:48 10,9 C 10,0 C 6,7 C 96 % 998,5 hPa 0,0 l/m 0 min 0 min 0 W/m 41,8 km/h (6 Bft) 59,57 %
14.01.2023 21:50 10,9 C 10,0 C 6,7 C 95 % 998,5 hPa 0,0 l/m 0 min 2 min 0 W/m 19,3 km/h (3 Bft) 63,83 %
14.01.2023 21:52 10,9 C 10,0 C 6,7 C 95 % 998,6 hPa 0,0 l/m 0 min 0 min 0 W/m 16,1 km/h (3 Bft) 89,13 %
14.01.2023 21:54 10,9 C 10,0 C 6,7 C 95 % 998,6 hPa 0,0 l/m 0 min 0 min 0 W/m 19,3 km/h (3 Bft) 97,87 %
14.01.2023 21:56 10,9 C 10,0 C 6,7 C 95 % 998,6 hPa 0,0 l/m 0 min 0 min 0 W/m 22,5 km/h (4 Bft) 95,74 %
14.01.2023 21:58 10,9 C 10,0 C 6,7 C 95 % 998,7 hPa 0,0 l/m 0 min 0 min 0 W/m 16,1 km/h (3 Bft) 97,87 %
14.01.2023 22:00 10,9 C 10,0 C 6,7 C 95 % 998,7 hPa 0,0 l/m 0 min 0 min 0 W/m 12,9 km/h (3 Bft) 97,87 %
14.01.2023 22:02 10,9 C 10,0 C 6,7 C 95 % 998,7 hPa 0,0 l/m 0 min 0 min 0 W/m 19,3 km/h (3 Bft) 93,62 %
14.01.2023 22:04 10,9 C 10,0 C 6,7 C 95 % 998,8 hPa 0,0 l/m 0 min 0 min 0 W/m 19,3 km/h (3 Bft) 95,74 %
14.01.2023 22:06 10,9 C 10,0 C 6,7 C 95 % 998,7 hPa 0,0 l/m 0 min 0 min 0 W/m 25,7 km/h (4 Bft) 98,28 %
14.01.2023 22:08 10,9 C 10,0 C 6,7 C 94 % 999,0 hPa 0,0 l/m 0 min 0 min 0 W/m 16,1 km/h (3 Bft) 97,14 %
14.01.2023 22:10 10,8 C 10,0 C 6,7 C 94 % 998,7 hPa 0,0 l/m 0 min 0 min 0 W/m 19,3 km/h (3 Bft) 93,62 %
14.01.2023 22:12 10,8 C 10,0 C 6,1 C 94 % 998,7 hPa 0,0 l/m 0 min 0 min 0 W/m 12,9 km/h (3 Bft) 95,74 %
14.01.2023 22:14 10,8 C 10,0 C 6,1 C 94 % 998,8 hPa 0,0 l/m 0 min 0 min 0 W/m 12,9 km/h (3 Bft) 95,74 %
14.01.2023 22:16 10,8 C 10,0 C 6,1 C 93 % 998,8 hPa 0,0 l/m 0 min 0 min 0 W/m 9,7 km/h (2 Bft) 97,87 %
14.01.2023 22:18 10,8 C 10,0 C 6,1 C 93 % 998,7 hPa 0,0 l/m 0 min 0 min 0 W/m 22,5 km/h (4 Bft) 97,87 %
14.01.2023 22:20 10,7 C 10,0 C 6,1 C 93 % 998,8 hPa 0,0 l/m 0 min 0 min 0 W/m 16,1 km/h (3 Bft) 95,65 %
14.01.2023 22:22 10,7 C 10,0 C 6,1 C 93 % 998,8 hPa 0,0 l/m 0 min 0 min 0 W/m 16,1 km/h (3 Bft) 95,74 %
14.01.2023 22:24 10,7 C 10,0 C 6,1 C 93 % 998,8 hPa 0,0 l/m 0 min 0 min 0 W/m 12,9 km/h (3 Bft) 97,87 %
14.01.2023 22:26 10,7 C 10,0 C 6,1 C 93 % 998,9 hPa 0,0 l/m 0 min 0 min 0 W/m 19,3 km/h (3 Bft) 95,74 %
14.01.2023 22:28 10,7 C 10,0 C 6,1 C 93 % 998,9 hPa 0,0 l/m 0 min 0 min 0 W/m 12,9 km/h (3 Bft) 97,87 %
14.01.2023 22:30 10,7 C 10,0 C 6,1 C 93 % 998,9 hPa 0,0 l/m 0 min 0 min 0 W/m 19,3 km/h (3 Bft) 95,74 %
14.01.2023 22:32 10,7 C 10,0 C 6,1 C 93 % 999,0 hPa 0,0 l/m 0 min 0 min 0 W/m 16,1 km/h (3 Bft) 95,74 %
14.01.2023 22:34 10,7 C 10,0 C 6,1 C 93 % 999,0 hPa 0,0 l/m 0 min 0 min 0 W/m 19,3 km/h (3 Bft) 97,83 %
14.01.2023 22:36 10,7 C 10,0 C 6,1 C 92 % 999,0 hPa 0,0 l/m 0 min 2 min 0 W/m 12,9 km/h (3 Bft) 97,87 %
14.01.2023 22:38 10,7 C 10,0 C 6,1 C 92 % 998,8 hPa 0,0 l/m 0 min 2 min 0 W/m 16,1 km/h (3 Bft) 97,87 %
14.01.2023 22:40 10,7 C 10,0 C 6,1 C 92 % 998,9 hPa 0,0 l/m 0 min 2 min 0 W/m 25,7 km/h (4 Bft) 97,87 %
14.01.2023 22:42 10,6 C 9,4 C 6,1 C 92 % 999,0 hPa 0,0 l/m 0 min 2 min 0 W/m 19,3 km/h (3 Bft) 97,87 %
14.01.2023 22:44 10,6 C 9,4 C 6,1 C 92 % 998,7 hPa 0,0 l/m 0 min 2 min 0 W/m 19,3 km/h (3 Bft) 97,87 %
14.01.2023 22:46 10,6 C 9,4 C 6,1 C 92 % 999,0 hPa 0,0 l/m 0 min 2 min 0 W/m 16,1 km/h (3 Bft) 97,87 %
14.01.2023 22:48 10,6 C 9,4 C 6,1 C 92 % 998,9 hPa 0,0 l/m 0 min 2 min 0 W/m 16,1 km/h (3 Bft) 97,83 %
14.01.2023 22:50 10,6 C 9,4 C 6,1 C 92 % 998,8 hPa 0,0 l/m 0 min 2 min 0 W/m 16,1 km/h (3 Bft) 97,87 %
14.01.2023 22:52 10,5 C 9,4 C 6,1 C 92 % 999,0 hPa 0,0 l/m 0 min 2 min 0 W/m 12,9 km/h (3 Bft) 97,87 %
14.01.2023 22:54 10,5 C 9,4 C 6,1 C 92 % 998,9 hPa 0,2 l/m 0 min 2 min 0 W/m 16,1 km/h (3 Bft) 97,87 %
14.01.2023 22:56 10,4 C 9,4 C 6,1 C 93 % 999,0 hPa 0,0 l/m 0 min 2 min 0 W/m 19,3 km/h (3 Bft) 89,36 %
14.01.2023 22:58 10,4 C 9,4 C 6,1 C 93 % 998,9 hPa 0,0 l/m 0 min 2 min 0 W/m 12,9 km/h (3 Bft) 95,74 %
14.01.2023 23:00 10,4 C 9,4 C 6,1 C 93 % 998,9 hPa 0,0 l/m 0 min 2 min 0 W/m 12,9 km/h (3 Bft) 97,87 %
14.01.2023 23:02 10,3 C 9,4 C 6,1 C 93 % 998,9 hPa 0,0 l/m 0 min 2 min 0 W/m 9,7 km/h (2 Bft) 97,83 %
14.01.2023 23:04 10,3 C 9,4 C 6,1 C 93 % 998,9 hPa 0,0 l/m 0 min 2 min 0 W/m 16,1 km/h (3 Bft) 97,87 %
14.01.2023 23:06 10,3 C 9,4 C 6,1 C 93 % 999,1 hPa 0,2 l/m 0 min 2 min 0 W/m 19,3 km/h (3 Bft) 66,10 %
14.01.2023 23:08 10,3 C 9,4 C 6,1 C 93 % 999,1 hPa 0,0 l/m 0 min 2 min 0 W/m 9,7 km/h (2 Bft) 25,71 %
14.01.2023 23:10 10,2 C 9,4 C 6,1 C 93 % 999,2 hPa 0,0 l/m 0 min 2 min 0 W/m 16,1 km/h (3 Bft) 61,70 %
14.01.2023 23:12 10,2 C 9,4 C 6,1 C 93 % 999,1 hPa 0,0 l/m 0 min 2 min 0 W/m 16,1 km/h (3 Bft) 25,53 %
14.01.2023 23:14 10,2 C 8,9 C 6,1 C 93 % 999,1 hPa 0,2 l/m 0 min 2 min 0 W/m 16,1 km/h (3 Bft) 52,38 %
14.01.2023 23:16 10,1 C 8,9 C 6,1 C 93 % 999,1 hPa 0,0 l/m 0 min 2 min 0 W/m 12,9 km/h (3 Bft) 97,83 %
14.01.2023 23:18 10,1 C 8,9 C 5,6 C 94 % 999,1 hPa 0,0 l/m 0 min 2 min 0 W/m 25,7 km/h (4 Bft) 97,87 %
14.01.2023 23:20 10,0 C 8,9 C 5,6 C 94 % 999,0 hPa 0,0 l/m 0 min 2 min 0 W/m 12,9 km/h (3 Bft) 95,74 %
14.01.2023 23:22 9,9 C 8,9 C 5,6 C 94 % 999,0 hPa 0,0 l/m 0 min 2 min 0 W/m 19,3 km/h (3 Bft) 97,87 %
14.01.2023 23:24 9,9 C 8,9 C 5,6 C 94 % 999,1 hPa 0,0 l/m 0 min 2 min 0 W/m 12,9 km/h (3 Bft) 93,62 %
14.01.2023 23:26 9,9 C 8,9 C 5,6 C 94 % 998,9 hPa 0,0 l/m 0 min 2 min 0 W/m 25,7 km/h (4 Bft) 89,36 %
14.01.2023 23:28 9,8 C 8,9 C 5,6 C 94 % 999,0 hPa 0,2 l/m 0 min 2 min 0 W/m 25,7 km/h (4 Bft) 95,74 %
14.01.2023 23:30 9,8 C 8,9 C 5,6 C 94 % 999,0 hPa 0,0 l/m 0 min 2 min 0 W/m 6,4 km/h (2 Bft) 30,43 %
14.01.2023 23:32 9,8 C 8,9 C 5,6 C 94 % 999,0 hPa 0,0 l/m 0 min 2 min 0 W/m 12,9 km/h (3 Bft) 46,81 %
14.01.2023 23:34 9,7 C 8,9 C 5,6 C 94 % 998,8 hPa 0,0 l/m 0 min 2 min 0 W/m 25,7 km/h (4 Bft) 80,85 %
14.01.2023 23:36 9,6 C 8,9 C 5,0 C 93 % 998,8 hPa 0,0 l/m 0 min 2 min 0 W/m 22,5 km/h (4 Bft) 31,91 %
14.01.2023 23:38 9,5 C 8,9 C 5,0 C 93 % 998,8 hPa 0,0 l/m 0 min 0 min 0 W/m 22,5 km/h (4 Bft) 53,19 %
14.01.2023 23:40 9,4 C 8,9 C 5,0 C 92 % 998,9 hPa 0,0 l/m 0 min 0 min 0 W/m 32,2 km/h (5 Bft) 63,83 %
14.01.2023 23:42 9,4 C 8,9 C 5,0 C 91 % 999,2 hPa 0,0 l/m 0 min 2 min 0 W/m 32,2 km/h (5 Bft) 80,85 %
14.01.2023 23:44 9,4 C 8,3 C 5,0 C 91 % 999,1 hPa 0,0 l/m 0 min 2 min 0 W/m 19,3 km/h (3 Bft) 76,09 %
14.01.2023 23:46 9,3 C 8,3 C 4,4 C 89 % 999,3 hPa 0,0 l/m 0 min 0 min 0 W/m 32,2 km/h (5 Bft) 63,83 %
14.01.2023 23:48 9,3 C 8,3 C 4,4 C 89 % 999,1 hPa 0,0 l/m 0 min 2 min 0 W/m 19,3 km/h (3 Bft) 91,49 %
14.01.2023 23:50 9,2 C 8,3 C 4,4 C 88 % 999,1 hPa 0,0 l/m 0 min 2 min 0 W/m 25,7 km/h (4 Bft) 76,60 %
14.01.2023 23:52 9,2 C 8,3 C 4,4 C 87 % 999,1 hPa 0,0 l/m 0 min 2 min 0 W/m 19,3 km/h (3 Bft) 68,09 %
14.01.2023 23:54 9,1 C 8,3 C 4,4 C 87 % 999,1 hPa 0,0 l/m 0 min 2 min 0 W/m 32,2 km/h (5 Bft) 80,85 %
14.01.2023 23:56 9,1 C 8,3 C 4,4 C 86 % 999,2 hPa 0,0 l/m 0 min 2 min 0 W/m 22,5 km/h (4 Bft) 59,57 %
14.01.2023 23:58 9,1 C 8,3 C 3,9 C 86 % 999,4 hPa 0,0 l/m 0 min 2 min 0 W/m 35,4 km/h (5 Bft) 86,96 %
_ Min-Zeit 05:06 02:48 05:24 23:56 20:10 - - - - 01:30 23:12
Minimum _ 6,2 C 5,6 C 2,2 C 86 % 998,0 hPa - - - - 6,4 km/h (2 Bft) 25,53 %
_ Max-Zeit 19:38 17:28 18:07 12:24 02:42 21:14 00:00 12:07 13:36 17:58 00:00
Maximum _ 12,1 C 11,1 C 7,8 C 96 % 1016,6 hPa 0,4 l/m 0 min 3 min 31 W/m 64,4 km/h
S-SW (8 Bft)
100,00 %
Durchschnitt _ 8,6 C 7,7 C 4,5 C 92 % 1006,5 hPa #9,4 l/m #0 min. #9:06 h 19 W/m 23,7 km/h (4 Bft) 94,39 %
© 2023 W. Hausmann